M I D A S
Marine Information and Data Acquisition System
Tripno 1438 of the Zeeleeuw from 2008-03-14 05:09:52 to 2008-03-14 16:23:57
Back to CruiseResearch ActivitiesStationsMapUnderway DataData graphs

EquipmentUnitsComment
TimeDGPSUTC
LatitudeDGPSDM.mWGS84
LongitudeDGPSDM.mWGS84
TemperatureSBE03/SBE38deg celciusITS90
ConductivitySBE21S/mITS90
SalinitySBE21 Practical Salinity Units
ChlorophylAChelsea fluorimeterg/lCalibrated in Aceton
Missing or incorrect values are displayed as -999
Sea surface data collected by the RV Zeeleeuw from 2008-03-14 05:09:35 to 2008-03-14 16:34:50
                                                                                    Next 1000 lines
Time Latitude Longitude Temperature Conductivity Salinity ChlorophylA
2008-03-14 05:09:44 51°13.662 2°55.955 14.2247 1.129654 6.571609 -1.766697
2008-03-14 05:09:50 51°13.662 2°55.955 14.2245 1.129654 6.571609 -1.731873
2008-03-14 05:09:54 51°13.662 2°55.955 14.2252 1.129654 6.571609 -1.731873
2008-03-14 05:09:58 51°13.662 2°55.954 14.2251 1.129654 6.571609 -1.731873
2008-03-14 05:10:04 51°13.663 2°55.952 14.2252 1.129654 6.571609 -1.766697
2008-03-14 05:10:10 51°13.663 2°55.95 14.2255 1.129654 6.571716 -1.766697
2008-03-14 05:10:13 51°13.664 2°55.949 14.2258 1.129654 6.571823 -1.766697
2008-03-14 05:10:18 51°13.665 2°55.946 14.2256 1.129654 6.571823 -1.766697
2008-03-14 05:10:24 51°13.666 2°55.941 14.226 1.129654 6.571823 -1.766697
2008-03-14 05:10:29 51°13.667 2°55.938 14.2259 1.129654 6.571823 -1.766697
2008-03-14 05:10:34 51°13.668 2°55.933 14.2265 1.129654 6.571929 -1.766697
2008-03-14 05:10:39 51°13.669 2°55.929 14.2264 1.129654 6.572036 -1.766697
2008-03-14 05:10:45 51°13.671 2°55.923 14.2267 1.129654 6.572036 -1.766697
2008-03-14 05:10:49 51°13.672 2°55.918 14.2268 1.129654 6.572036 -1.766697
2008-03-14 05:10:54 51°13.674 2°55.913 14.2269 1.129654 6.572036 -1.766697
2008-03-14 05:10:59 51°13.675 2°55.907 14.2271 1.129654 6.572036 -1.766697
2008-03-14 05:11:05 51°13.677 2°55.899 14.2276 1.129551 6.571389 -1.766697
2008-03-14 05:11:09 51°13.678 2°55.894 14.2275 1.129551 6.571389 -1.766697
2008-03-14 05:11:14 51°13.679 2°55.888 14.2277 1.129551 6.571496 -1.766697
2008-03-14 05:11:19 51°13.68 2°55.881 14.228 1.129551 6.571496 -1.731873
2008-03-14 05:11:24 51°13.682 2°55.874 14.2282 1.129551 6.571496 -1.766697
2008-03-14 05:11:29 51°13.683 2°55.867 14.2285 1.129551 6.571496 -1.766697
2008-03-14 05:11:34 51°13.683 2°55.861 14.2286 1.129551 6.571496 -1.766697
2008-03-14 05:11:39 51°13.684 2°55.854 14.2289 1.129551 6.571496 -1.766697
2008-03-14 05:11:44 51°13.685 2°55.847 14.2288 1.129551 6.571603 -1.731873
2008-03-14 05:11:50 51°13.687 2°55.839 14.2291 1.129551 6.571603 -1.766697
2008-03-14 05:11:54 51°13.688 2°55.833 14.2296 1.129551 6.571709 -1.766697
2008-03-14 05:11:59 51°13.689 2°55.827 14.2297 1.129551 6.571709 -1.766697
2008-03-14 05:12:04 51°13.691 2°55.82 14.2299 1.129551 6.571709 -1.766697
2008-03-14 05:12:09 51°13.693 2°55.813 14.23 1.129551 6.571816 -1.731873
2008-03-14 05:12:14 51°13.695 2°55.806 14.2305 1.129551 6.571816 -1.731873
2008-03-14 05:12:19 51°13.697 2°55.799 14.2301 1.129551 6.571816 -1.766697
2008-03-14 05:12:24 51°13.699 2°55.791 14.2308 1.129551 6.571923 -1.766697
2008-03-14 05:12:29 51°13.701 2°55.784 14.231 1.129551 6.571923 -1.766697
2008-03-14 05:12:34 51°13.703 2°55.777 14.231 1.129447 6.571276 -1.731873
2008-03-14 05:12:40 51°13.706 2°55.768 14.2309 1.129447 6.571276 -1.766697
2008-03-14 05:12:44 51°13.708 2°55.762 14.2314 1.129447 6.571276 -1.731873
2008-03-14 05:12:49 51°13.711 2°55.755 14.2318 1.129447 6.571276 -1.766697
2008-03-14 05:12:54 51°13.713 2°55.749 14.2317 1.129447 6.571383 -1.766697
2008-03-14 05:12:59 51°13.715 2°55.743 14.2324 1.129447 6.571383 -1.766697
2008-03-14 05:13:05 51°13.717 2°55.738 14.2323 1.129447 6.571383 -1.766697
2008-03-14 05:13:09 51°13.718 2°55.735 14.2328 1.129447 6.571383 -1.766697
2008-03-14 05:13:14 51°13.72 2°55.731 14.233 1.129447 6.571489 -1.766697
2008-03-14 05:13:19 51°13.721 2°55.729 14.2333 1.129447 6.571383 -1.766697
2008-03-14 05:13:24 51°13.721 2°55.726 14.2333 1.129447 6.571383 -1.731873
2008-03-14 05:13:29 51°13.722 2°55.725 14.2338 1.129447 6.571383 -1.731873
2008-03-14 05:13:34 51°13.722 2°55.724 14.2339 1.129447 6.571383 -1.766697
2008-03-14 05:13:39 51°13.722 2°55.724 14.2338 1.129447 6.571383 -1.766697
2008-03-14 05:13:44 51°13.722 2°55.725 14.2341 1.129447 6.571383 -1.766697
2008-03-14 05:13:49 51°13.722 2°55.726 14.2342 1.129447 6.571383 -1.766697
2008-03-14 05:13:54 51°13.722 2°55.728 14.2348 1.129447 6.571489 -1.731873
2008-03-14 05:13:59 51°13.722 2°55.73 14.2347 1.129447 6.571489 -1.731873
2008-03-14 05:14:04 51°13.722 2°55.733 14.2351 1.129447 6.571489 -1.766697
2008-03-14 05:14:09 51°13.722 2°55.737 14.2354 1.129447 6.571596 -1.766697
2008-03-14 05:14:14 51°13.722 2°55.74 14.2357 1.129447 6.571703 -1.731873
2008-03-14 05:14:19 51°13.722 2°55.743 14.2356 1.129447 6.571703 -1.766697
2008-03-14 05:14:24 51°13.722 2°55.746 14.236 1.129344 6.570949 -1.766697
2008-03-14 05:14:29 51°13.722 2°55.747 14.2362 1.129344 6.570949 -1.766697
2008-03-14 05:14:34 51°13.722 2°55.747 14.2365 1.129344 6.571056 -1.731873
2008-03-14 05:14:39 51°13.721 2°55.747 14.2367 1.129344 6.570949 -1.766697
2008-03-14 05:14:44 51°13.721 2°55.746 14.2369 1.129344 6.571056 -1.766697
2008-03-14 05:14:49 51°13.72 2°55.744 14.2368 1.129344 6.571056 -1.766697
2008-03-14 05:14:54 51°13.719 2°55.741 14.2371 1.129344 6.571056 -1.766697
2008-03-14 05:14:59 51°13.718 2°55.738 14.2373 1.129344 6.571056 -1.766697
2008-03-14 05:15:04 51°13.718 2°55.735 14.2376 1.129344 6.571056 -1.766697
2008-03-14 05:15:09 51°13.716 2°55.731 14.2373 1.129344 6.571056 -1.766697
2008-03-14 05:15:14 51°13.716 2°55.727 14.2381 1.129344 6.571163 -1.766697
2008-03-14 05:15:19 51°13.715 2°55.723 14.238 1.129344 6.571163 -1.766697
2008-03-14 05:15:24 51°13.714 2°55.721 14.2384 1.129344 6.571163 -1.766697
2008-03-14 05:15:29 51°13.714 2°55.72 14.2383 1.129344 6.571163 -1.766697
2008-03-14 05:15:34 51°13.714 2°55.72 14.239 1.129344 6.571163 -1.766697
2008-03-14 05:15:39 51°13.715 2°55.722 14.239 1.129344 6.571163 -1.766697
2008-03-14 05:15:45 51°13.717 2°55.725 14.2391 1.129344 6.571269 -1.766697
2008-03-14 05:15:49 51°13.719 2°55.727 14.2395 1.129344 6.571269 -1.731873
2008-03-14 05:15:54 51°13.721 2°55.73 14.2399 1.129344 6.571376 -1.731873
2008-03-14 05:15:59 51°13.723 2°55.733 14.2401 1.129344 6.571376 -1.731873
2008-03-14 05:16:04 51°13.726 2°55.735 14.2402 1.129344 6.571483 -1.766697
2008-03-14 05:16:09 51°13.728 2°55.737 14.2402 1.129344 6.571483 -1.766697
2008-03-14 05:16:14 51°13.728 2°55.739 14.2409 1.129241 6.570729 -1.766697
2008-03-14 05:16:19 51°13.729 2°55.739 14.2409 1.129241 6.570729 -1.766697
2008-03-14 05:16:24 51°13.728 2°55.74 14.2412 1.129241 6.570729 -1.766697
2008-03-14 05:16:29 51°13.728 2°55.739 14.2413 1.129241 6.570729 -1.766697
2008-03-14 05:16:34 51°13.726 2°55.739 14.2416 1.129241 6.570729 -1.766697
2008-03-14 05:16:39 51°13.724 2°55.739 14.2415 1.129241 6.570729 -1.766697
2008-03-14 05:16:44 51°13.721 2°55.738 14.2421 1.129241 6.570729 -1.766697
2008-03-14 05:16:49 51°13.719 2°55.737 14.2422 1.129241 6.570729 -1.766697
2008-03-14 05:16:54 51°13.716 2°55.736 14.2424 1.129241 6.570836 -1.766697
2008-03-14 05:16:59 51°13.714 2°55.735 14.2423 1.129241 6.570836 -1.766697
2008-03-14 05:17:04 51°13.712 2°55.734 14.2428 1.129241 6.570942 -1.766697
2008-03-14 05:17:09 51°13.712 2°55.734 14.243 1.129241 6.570942 -1.766697
2008-03-14 05:17:14 51°13.712 2°55.734 14.2432 1.129241 6.570942 -1.766697
2008-03-14 05:17:19 51°13.713 2°55.734 14.2432 1.129241 6.571156 -1.766697
2008-03-14 05:17:24 51°13.715 2°55.734 14.2433 1.129241 6.571156 -1.766697
2008-03-14 05:17:29 51°13.718 2°55.734 14.2438 1.129241 6.571156 -1.766697
2008-03-14 05:17:34 51°13.721 2°55.733 14.244 1.129241 6.571156 -1.766697
2008-03-14 05:17:39 51°13.725 2°55.731 14.2447 1.129241 6.571263 -1.766697
2008-03-14 05:17:44 51°13.73 2°55.728 14.2444 1.129241 6.571369 -1.731873
2008-03-14 05:17:49 51°13.735 2°55.724 14.245 1.129241 6.571263 -1.731873
2008-03-14 05:17:54 51°13.741 2°55.719 14.2449 1.129241 6.571156 -1.766697
2008-03-14 05:17:59 51°13.748 2°55.713 14.2451 1.129241 6.571156 -1.766697
2008-03-14 05:18:04 51°13.755 2°55.707 14.2455 1.129241 6.571049 -1.766697
2008-03-14 05:18:09 51°13.763 2°55.7 14.2458 1.129241 6.570942 -1.766697
2008-03-14 05:18:14 51°13.771 2°55.693 14.246 1.129138 6.570402 -1.766697
2008-03-14 05:18:19 51°13.78 2°55.686 14.2463 1.129138 6.570509 -1.766697
2008-03-14 05:18:24 51°13.79 2°55.678 14.2465 1.129138 6.570616 -1.731873
2008-03-14 05:18:29 51°13.799 2°55.67 14.2466 1.129138 6.570616 -1.731873
2008-03-14 05:18:34 51°13.809 2°55.662 14.2471 1.129138 6.570829 -1.766697
2008-03-14 05:18:39 51°13.819 2°55.653 14.2472 1.129138 6.570936 -1.766697
2008-03-14 05:18:44 51°13.829 2°55.644 14.247 1.129138 6.571149 -1.766697
2008-03-14 05:18:49 51°13.84 2°55.636 14.2475 1.129138 6.571043 -1.766697
2008-03-14 05:18:54 51°13.85 2°55.627 14.2478 1.129138 6.571043 -1.766697
2008-03-14 05:18:59 51°13.86 2°55.616 14.2477 1.129138 6.571043 -1.766697
2008-03-14 05:19:04 51°13.871 2°55.608 14.2479 1.129138 6.571043 -1.766697
2008-03-14 05:19:09 51°13.883 2°55.6 14.2482 1.129138 6.571043 -1.766697
2008-03-14 05:19:14 51°13.894 2°55.591 14.2481 1.129138 6.571149 -1.766697
2008-03-14 05:19:19 51°13.905 2°55.583 14.2486 1.129138 6.571256 -1.731873
2008-03-14 05:19:24 51°13.916 2°55.574 14.2487 1.129138 6.571363 -1.766697
2008-03-14 05:19:29 51°13.927 2°55.565 14.2491 1.129138 6.571363 -1.766697
2008-03-14 05:19:34 51°13.938 2°55.556 14.2491 1.129035 6.570929 -1.766697
2008-03-14 05:19:39 51°13.949 2°55.546 14.2492 1.129035 6.571036 -1.766697
2008-03-14 05:19:44 51°13.96 2°55.537 14.2498 1.129035 6.571036 -1.766697
2008-03-14 05:19:49 51°13.971 2°55.527 14.2499 1.129035 6.571036 -1.766697
2008-03-14 05:19:54 51°13.982 2°55.518 14.2499 1.129035 6.571036 -1.766697
2008-03-14 05:19:59 51°13.993 2°55.509 14.2504 1.129035 6.571036 -1.766697
2008-03-14 05:20:04 51°14.004 2°55.5 14.2503 1.129035 6.571036 -1.766697
2008-03-14 05:20:09 51°14.015 2°55.491 14.2506 1.129035 6.570929 -1.766697
2008-03-14 05:20:14 51°14.026 2°55.482 14.2511 1.129035 6.570929 -1.766697
2008-03-14 05:20:19 51°14.037 2°55.473 14.2513 1.129035 6.571143 -1.766697
2008-03-14 05:20:24 51°14.048 2°55.464 14.2514 1.129035 6.571036 -1.766697
2008-03-14 05:20:29 51°14.06 2°55.456 14.2515 1.129035 6.571036 -1.766697
2008-03-14 05:20:34 51°14.071 2°55.447 14.2522 1.128932 6.570602 -1.766697
2008-03-14 05:20:39 51°14.082 2°55.438 14.2523 1.128932 6.570816 -1.731873
2008-03-14 05:20:44 51°14.094 2°55.429 14.2525 1.128932 6.570816 -1.731873
2008-03-14 05:20:49 51°14.105 2°55.421 14.2529 1.128932 6.570923 -1.766697
2008-03-14 05:20:54 51°14.116 2°55.412 14.2531 1.128932 6.570923 -1.766697
2008-03-14 05:20:59 51°14.128 2°55.403 14.2534 1.128932 6.570923 -1.766697
2008-03-14 05:21:04 51°14.139 2°55.393 14.2535 1.128932 6.570923 -1.766697
2008-03-14 05:21:09 51°14.15 2°55.383 14.2536 1.128932 6.57103 -1.766697
2008-03-14 05:21:14 51°14.16 2°55.373 14.254 1.128932 6.570923 -1.766697
2008-03-14 05:21:19 51°14.171 2°55.362 14.2542 1.128932 6.57103 -1.766697
2008-03-14 05:21:24 51°14.182 2°55.351 14.2543 1.128829 6.570382 -1.766697
2008-03-14 05:21:29 51°14.193 2°55.339 14.2545 1.128829 6.570382 -1.766697
2008-03-14 05:21:34 51°14.203 2°55.326 14.2546 1.128829 6.570489 -1.766697
2008-03-14 05:21:39 51°14.213 2°55.313 14.2551 1.128829 6.570489 -1.766697
2008-03-14 05:21:44 51°14.223 2°55.299 14.2554 1.128829 6.570703 -1.731873
2008-03-14 05:21:49 51°14.232 2°55.285 14.2557 1.128829 6.570809 -1.766697
2008-03-14 05:21:54 51°14.241 2°55.27 14.2558 1.128829 6.570703 -1.766697
2008-03-14 05:21:59 51°14.251 2°55.256 14.256 1.128829 6.570703 -1.766697
2008-03-14 05:22:04 51°14.26 2°55.241 14.2562 1.128829 6.570809 -1.766697
2008-03-14 05:22:09 51°14.269 2°55.225 14.2566 1.128829 6.570703 -1.766697
2008-03-14 05:22:14 51°14.278 2°55.21 14.2566 1.128829 6.570703 -1.766697
2008-03-14 05:22:19 51°14.286 2°55.194 14.2567 1.128726 6.570056 -1.766697
2008-03-14 05:22:24 51°14.295 2°55.178 14.257 1.128726 6.570162 -1.766697
2008-03-14 05:22:29 51°14.303 2°55.161 14.2574 1.128726 6.570162 -1.766697
2008-03-14 05:22:34 51°14.311 2°55.144 14.2576 1.128726 6.570269 -1.766697
2008-03-14 05:22:39 51°14.319 2°55.127 14.2578 1.128726 6.570376 -1.731873
2008-03-14 05:22:44 51°14.328 2°55.11 14.2576 1.128726 6.570376 -1.766697
2008-03-14 05:22:49 51°14.337 2°55.093 14.2582 1.128726 6.570376 -1.766697
2008-03-14 05:22:54 51°14.346 2°55.076 14.2583 1.128726 6.570483 -1.766697
2008-03-14 05:22:59 51°14.355 2°55.059 14.2586 1.128726 6.570483 -1.766697
2008-03-14 05:23:04 51°14.364 2°55.042 14.2586 1.128726 6.570589 -1.766697
2008-03-14 05:23:09 51°14.373 2°55.026 14.2589 1.128726 6.570589 -1.766697
2008-03-14 05:23:14 51°14.384 2°55.011 14.2592 1.128623 6.569942 -1.766697
2008-03-14 05:23:19 51°14.394 2°54.996 14.2596 1.128623 6.570049 -1.766697
2008-03-14 05:23:24 51°14.406 2°54.983 14.2599 1.128623 6.570049 -1.766697
2008-03-14 05:23:29 51°14.417 2°54.97 14.2603 1.128623 6.570049 -1.766697
2008-03-14 05:23:34 51°14.429 2°54.957 14.2603 1.128623 6.570263 -1.766697
2008-03-14 05:23:39 51°14.44 2°54.945 14.261 1.128623 6.570369 -1.766697
2008-03-14 05:23:44 51°14.452 2°54.933 14.2613 1.128623 6.570476 -1.766697
2008-03-14 05:23:49 51°14.463 2°54.92 14.2613 1.128623 6.570583 -1.766697
2008-03-14 05:23:54 51°14.474 2°54.908 14.2617 1.128623 6.57069 -1.766697
2008-03-14 05:23:59 51°14.486 2°54.895 14.2622 1.128623 6.57069 -1.766697
2008-03-14 05:24:04 51°14.497 2°54.882 14.2624 1.128623 6.57069 -1.766697
2008-03-14 05:24:09 51°14.508 2°54.868 14.263 1.12852 6.570149 -1.766697
2008-03-14 05:24:14 51°14.519 2°54.855 14.2628 1.12852 6.569936 -1.766697
2008-03-14 05:24:19 51°14.53 2°54.841 14.2633 1.12852 6.569722 -1.766697
2008-03-14 05:24:24 51°14.541 2°54.827 14.2639 1.12852 6.569829 -1.766697
2008-03-14 05:24:29 51°14.552 2°54.813 14.2644 1.12852 6.569829 -1.766697
2008-03-14 05:24:34 51°14.562 2°54.798 14.2647 1.12852 6.569936 -1.731873
2008-03-14 05:24:39 51°14.572 2°54.783 14.2651 1.12852 6.570256 -1.766697
2008-03-14 05:24:44 51°14.582 2°54.767 14.2648 1.12852 6.57047 -1.766697
2008-03-14 05:24:49 51°14.592 2°54.752 14.2656 1.12852 6.570576 -1.766697
2008-03-14 05:24:54 51°14.602 2°54.735 14.266 1.12852 6.57079 -1.766697
2008-03-14 05:24:59 51°14.612 2°54.72 14.2662 1.12852 6.57079 -1.766697
2008-03-14 05:25:04 51°14.622 2°54.704 14.2664 1.12852 6.57079 -1.766697
2008-03-14 05:25:09 51°14.632 2°54.688 14.2667 1.128417 6.570143 -1.766697
2008-03-14 05:25:14 51°14.642 2°54.672 14.2669 1.128417 6.570036 -1.766697
2008-03-14 05:25:19 51°14.653 2°54.656 14.2677 1.128417 6.569929 -1.766697
2008-03-14 05:25:24 51°14.663 2°54.64 14.2678 1.128417 6.570036 -1.731873
2008-03-14 05:25:29 51°14.673 2°54.623 14.268 1.128417 6.570036 -1.731873
2008-03-14 05:25:34 51°14.683 2°54.606 14.2686 1.128417 6.570036 -1.766697
2008-03-14 05:25:39 51°14.693 2°54.588 14.2686 1.128417 6.570143 -1.766697
2008-03-14 05:25:44 51°14.703 2°54.57 14.2689 1.128417 6.570143 -1.766697
2008-03-14 05:25:49 51°14.713 2°54.551 14.2694 1.128417 6.570036 -1.766697
2008-03-14 05:25:54 51°14.723 2°54.533 14.2701 1.128313 6.569389 -1.766697
2008-03-14 05:25:59 51°14.734 2°54.514 14.2707 1.128313 6.569389 -1.766697
2008-03-14 05:26:04 51°14.743 2°54.494 14.2701 1.128314 6.569709 -1.766697
2008-03-14 05:26:09 51°14.754 2°54.474 14.2712 1.128314 6.569602 -1.766697
2008-03-14 05:26:14 51°14.764 2°54.454 14.2713 1.128314 6.569709 -1.766697
2008-03-14 05:26:19 51°14.773 2°54.434 14.2717 1.128314 6.569816 -1.766697
2008-03-14 05:26:24 51°14.783 2°54.413 14.2719 1.128314 6.569816 -1.766697
2008-03-14 05:26:29 51°14.793 2°54.393 14.2724 1.128314 6.569816 -1.766697
2008-03-14 05:26:34 51°14.803 2°54.373 14.2727 1.128314 6.569709 -1.766697
2008-03-14 05:26:39 51°14.813 2°54.353 14.273 1.12821 6.569168 -1.766697
2008-03-14 05:26:44 51°14.823 2°54.332 14.2736 1.128314 6.569922 -1.766697
2008-03-14 05:26:49 51°14.834 2°54.312 14.2737 1.128314 6.569922 -1.766697
2008-03-14 05:26:54 51°14.844 2°54.291 14.2741 1.12821 6.569489 -1.766697
2008-03-14 05:26:59 51°14.853 2°54.27 14.2748 1.12821 6.569489 -1.766697
2008-03-14 05:27:04 51°14.863 2°54.249 14.2747 1.12821 6.569596 -1.766697
2008-03-14 05:27:09 51°14.873 2°54.229 14.2747 1.12821 6.569596 -1.766697
2008-03-14 05:27:14 51°14.883 2°54.208 14.2751 1.12821 6.569596 -1.766697
2008-03-14 05:27:19 51°14.893 2°54.187 14.276 1.12821 6.569596 -1.766697
2008-03-14 05:27:24 51°14.903 2°54.166 14.2765 1.12821 6.569596 -1.766697
2008-03-14 05:27:29 51°14.913 2°54.146 14.2763 1.12821 6.569596 -1.766697
2008-03-14 05:27:34 51°14.922 2°54.125 14.2769 1.12821 6.569702 -1.766697
2008-03-14 05:27:39 51°14.932 2°54.104 14.2774 1.12821 6.569809 -1.766697
2008-03-14 05:27:44 51°14.942 2°54.084 14.2776 1.12821 6.569916 -1.766697
2008-03-14 05:27:49 51°14.952 2°54.063 14.2781 1.12821 6.570023 -1.766697
2008-03-14 05:27:54 51°14.962 2°54.042 14.2785 1.128107 6.569375 -1.766697
2008-03-14 05:27:59 51°14.972 2°54.021 14.279 1.128107 6.569375 -1.766697
2008-03-14 05:28:04 51°14.982 2°54 14.2791 1.128107 6.569375 -1.766697
2008-03-14 05:28:09 51°14.991 2°53.979 14.2794 1.128107 6.569482 -1.766697
2008-03-14 05:28:14 51°15.001 2°53.958 14.2802 1.128107 6.569482 -1.766697
2008-03-14 05:28:19 51°15.011 2°53.937 14.2805 1.128107 6.569482 -1.766697
2008-03-14 05:28:24 51°15.021 2°53.916 14.2808 1.128107 6.569589 -1.766697
2008-03-14 05:28:29 51°15.031 2°53.895 14.2815 1.128107 6.569589 -1.766697
2008-03-14 05:28:34 51°15.041 2°53.874 14.2815 1.128107 6.569589 -1.766697
2008-03-14 05:28:39 51°15.051 2°53.853 14.2819 1.128107 6.569589 -1.766697
2008-03-14 05:28:44 51°15.06 2°53.832 14.282 1.128004 6.569155 -1.766697
2008-03-14 05:28:49 51°15.07 2°53.811 14.2825 1.128107 6.569696 -1.766697
2008-03-14 05:28:54 51°15.08 2°53.79 14.2831 1.128004 6.569048 -1.766697
2008-03-14 05:28:59 51°15.09 2°53.769 14.2832 1.128004 6.569048 -1.766697
2008-03-14 05:29:04 51°15.1 2°53.748 14.2837 1.128004 6.569155 -1.766697
2008-03-14 05:29:09 51°15.11 2°53.727 14.2842 1.128004 6.569155 -1.766697
2008-03-14 05:29:14 51°15.12 2°53.706 14.2843 1.128004 6.569262 -1.766697
2008-03-14 05:29:19 51°15.129 2°53.685 14.2848 1.128004 6.569262 -1.766697
2008-03-14 05:29:24 51°15.139 2°53.665 14.2855 1.128004 6.569369 -1.766697
2008-03-14 05:29:29 51°15.148 2°53.643 14.286 1.128004 6.569369 -1.766697
2008-03-14 05:29:34 51°15.156 2°53.62 14.2858 1.128004 6.569582 -1.731873
2008-03-14 05:29:39 51°15.164 2°53.598 14.2868 1.128004 6.569369 -1.766697
2008-03-14 05:29:44 51°15.172 2°53.575 14.2865 1.128004 6.569369 -1.766697
2008-03-14 05:29:50 51°15.182 2°53.548 14.2876 1.128004 6.569369 -1.766697
2008-03-14 05:29:54 51°15.188 2°53.53 14.2877 1.127901 6.568615 -1.766697
2008-03-14 05:29:59 51°15.196 2°53.507 14.2879 1.127901 6.568615 -1.766697
2008-03-14 05:30:04 51°15.204 2°53.484 14.2884 1.127901 6.568721 -1.766697
2008-03-14 05:30:09 51°15.211 2°53.462 14.2892 1.127901 6.568615 -1.766697
2008-03-14 05:30:14 51°15.217 2°53.438 14.2897 1.127901 6.569149 -1.731873
2008-03-14 05:30:19 51°15.222 2°53.414 14.2891 1.127901 6.569149 -1.766697
2008-03-14 05:30:24 51°15.228 2°53.39 14.2899 1.127901 6.569042 -1.766697
2008-03-14 05:30:29 51°15.234 2°53.366 14.2902 1.127901 6.569042 -1.766697
2008-03-14 05:30:34 51°15.238 2°53.342 14.2907 1.127901 6.569042 -1.766697
2008-03-14 05:30:39 51°15.244 2°53.318 14.2914 1.127901 6.568935 -1.766697
2008-03-14 05:30:44 51°15.249 2°53.294 14.2916 1.127901 6.568935 -1.766697
2008-03-14 05:30:49 51°15.253 2°53.269 14.292 1.127901 6.569149 -1.731873
2008-03-14 05:30:54 51°15.257 2°53.244 14.2922 1.127901 6.569042 -1.766697
2008-03-14 05:30:59 51°15.262 2°53.22 14.2932 1.127901 6.569042 -1.766697
2008-03-14 05:31:04 51°15.265 2°53.195 14.2928 1.127901 6.569255 -1.766697
2008-03-14 05:31:09 51°15.27 2°53.17 14.2936 1.127901 6.569149 -1.766697
2008-03-14 05:31:14 51°15.273 2°53.146 14.2937 1.127901 6.569149 -1.766697
2008-03-14 05:31:19 51°15.277 2°53.121 14.2943 1.127901 6.569362 -1.766697
2008-03-14 05:31:24 51°15.281 2°53.096 14.2944 1.127901 6.569255 -1.766697
2008-03-14 05:31:29 51°15.285 2°53.071 14.2949 1.127901 6.569255 -1.766697
2008-03-14 05:31:34 51°15.289 2°53.046 14.2955 1.127798 6.568715 -1.766697
2008-03-14 05:31:39 51°15.293 2°53.021 14.2959 1.127798 6.568822 -1.766697
2008-03-14 05:31:44 51°15.297 2°52.997 14.2959 1.127798 6.568928 -1.766697
2008-03-14 05:31:49 51°15.301 2°52.972 14.2965 1.127798 6.568928 -1.766697
2008-03-14 05:31:54 51°15.305 2°52.947 14.2967 1.127798 6.568928 -1.766697
2008-03-14 05:31:59 51°15.309 2°52.922 14.2975 1.127798 6.568928 -1.766697
2008-03-14 05:32:04 51°15.313 2°52.898 14.2976 1.127798 6.568928 -1.731873
2008-03-14 05:32:09 51°15.317 2°52.873 14.2981 1.127798 6.569035 -1.766697
2008-03-14 05:32:14 51°15.321 2°52.848 14.2983 1.127798 6.569035 -1.766697
2008-03-14 05:32:19 51°15.324 2°52.823 14.299 1.127798 6.569142 -1.766697
2008-03-14 05:32:24 51°15.328 2°52.799 14.2995 1.127798 6.569142 -1.766697
2008-03-14 05:32:29 51°15.333 2°52.774 14.2997 1.127798 6.569142 -1.766697
2008-03-14 05:32:34 51°15.337 2°52.75 14.3002 1.127798 6.569142 -1.766697
2008-03-14 05:32:39 51°15.341 2°52.725 14.3011 1.127798 6.569356 -1.766697
2008-03-14 05:32:44 51°15.345 2°52.701 14.3011 1.127798 6.569356 -1.766697
2008-03-14 05:32:49 51°15.349 2°52.676 14.3016 1.127798 6.569356 -1.766697
2008-03-14 05:32:54 51°15.353 2°52.652 14.302 1.127798 6.569463 -1.766697
2008-03-14 05:32:59 51°15.356 2°52.627 14.3022 1.127798 6.569463 -1.766697
2008-03-14 05:33:04 51°15.36 2°52.602 14.3033 1.127695 6.568708 -1.766697
2008-03-14 05:33:09 51°15.363 2°52.578 14.3035 1.127695 6.568922 -1.766697
2008-03-14 05:33:14 51°15.367 2°52.553 14.3043 1.127695 6.568815 -1.766697
2008-03-14 05:33:19 51°15.369 2°52.528 14.3042 1.127695 6.569029 -1.766697
2008-03-14 05:33:24 51°15.372 2°52.503 14.3047 1.127695 6.569029 -1.766697
2008-03-14 05:33:29 51°15.375 2°52.478 14.3052 1.127695 6.569029 -1.766697
2008-03-14 05:33:34 51°15.377 2°52.453 14.3054 1.127695 6.569029 -1.766697
2008-03-14 05:33:39 51°15.38 2°52.428 14.3059 1.127695 6.569029 -1.766697
2008-03-14 05:33:44 51°15.384 2°52.403 14.3069 1.127695 6.568922 -1.766697
2008-03-14 05:33:49 51°15.386 2°52.378 14.307 1.127695 6.569136 -1.766697
2008-03-14 05:33:54 51°15.389 2°52.353 14.3074 1.127695 6.569136 -1.766697
2008-03-14 05:33:59 51°15.392 2°52.328 14.3081 1.127695 6.569136 -1.766697
2008-03-14 05:34:04 51°15.394 2°52.303 14.3084 1.127695 6.569349 -1.766697
2008-03-14 05:34:09 51°15.397 2°52.278 14.3088 1.127695 6.569349 -1.766697
2008-03-14 05:34:14 51°15.399 2°52.253 14.3089 1.127695 6.569349 -1.766697
2008-03-14 05:34:19 51°15.402 2°52.228 14.3098 1.127695 6.569349 -1.766697
2008-03-14 05:34:24 51°15.404 2°52.203 14.3097 1.127695 6.569349 -1.766697
2008-03-14 05:34:29 51°15.407 2°52.178 14.3105 1.127695 6.569349 -1.766697
2008-03-14 05:34:34 51°15.409 2°52.153 14.3108 1.127695 6.569349 -1.766697
2008-03-14 05:34:39 51°15.412 2°52.128 14.3117 1.127592 6.568702 -1.766697
2008-03-14 05:34:44 51°15.414 2°52.103 14.3118 1.127592 6.568809 -1.766697
2008-03-14 05:34:49 51°15.417 2°52.079 14.3122 1.127592 6.568809 -1.766697
2008-03-14 05:34:54 51°15.419 2°52.054 14.3128 1.127592 6.568809 -1.766697
2008-03-14 05:34:59 51°15.421 2°52.029 14.3133 1.127592 6.568809 -1.766697
2008-03-14 05:35:04 51°15.424 2°52.004 14.3136 1.127592 6.569022 -1.766697
2008-03-14 05:35:09 51°15.426 2°51.98 14.3143 1.127592 6.568915 -1.766697
2008-03-14 05:35:14 51°15.429 2°51.955 14.3148 1.127592 6.569022 -1.766697
2008-03-14 05:35:19 51°15.432 2°51.93 14.3151 1.127592 6.569022 -1.766697
2008-03-14 05:35:24 51°15.434 2°51.905 14.3156 1.127592 6.569022 -1.766697
2008-03-14 05:35:29 51°15.437 2°51.88 14.3165 1.127592 6.569022 -1.766697
2008-03-14 05:35:34 51°15.439 2°51.855 14.3167 1.127592 6.569022 -1.766697
2008-03-14 05:35:39 51°15.441 2°51.83 14.3173 1.127592 6.569129 -1.766697
2008-03-14 05:35:44 51°15.444 2°51.805 14.3176 1.127592 6.569129 -1.766697
2008-03-14 05:35:49 51°15.446 2°51.781 14.319 1.127592 6.569129 -1.766697
2008-03-14 05:35:54 51°15.446 2°51.756 14.3188 1.127592 6.56945 -1.766697
2008-03-14 05:35:59 51°15.446 2°51.731 14.319 1.127592 6.56945 -1.766697
2008-03-14 05:36:04 51°15.446 2°51.707 14.3202 1.127592 6.569236 -1.766697
2008-03-14 05:36:09 51°15.445 2°51.682 14.3201 1.127592 6.56945 -1.766697
2008-03-14 05:36:14 51°15.445 2°51.657 14.3211 1.127592 6.569236 -1.766697
2008-03-14 05:36:19 51°15.443 2°51.633 14.321 1.127592 6.569343 -1.766697
2008-03-14 05:36:24 51°15.443 2°51.608 14.3216 1.127592 6.569343 -1.766697
2008-03-14 05:36:29 51°15.442 2°51.583 14.3222 1.127592 6.569343 -1.766697
2008-03-14 05:36:34 51°15.441 2°51.558 14.3229 1.127489 6.568695 -1.766697
2008-03-14 05:36:39 51°15.441 2°51.534 14.3235 1.127489 6.568695 -1.766697
2008-03-14 05:36:44 51°15.44 2°51.509 14.3237 1.127489 6.568802 -1.766697
2008-03-14 05:36:49 51°15.44 2°51.484 14.3244 1.127592 6.56945 -1.766697
2008-03-14 05:36:54 51°15.439 2°51.459 14.3249 1.127489 6.569016 -1.766697
2008-03-14 05:36:59 51°15.438 2°51.435 14.3252 1.127489 6.569016 -1.766697
2008-03-14 05:37:04 51°15.438 2°51.41 14.3256 1.127489 6.568909 -1.766697
2008-03-14 05:37:09 51°15.437 2°51.385 14.3265 1.127489 6.569016 -1.766697
2008-03-14 05:37:14 51°15.437 2°51.36 14.3268 1.127489 6.569123 -1.766697
2008-03-14 05:37:19 51°15.436 2°51.336 14.3276 1.127489 6.569123 -1.766697
2008-03-14 05:37:24 51°15.435 2°51.311 14.3281 1.127489 6.569016 -1.766697
2008-03-14 05:37:29 51°15.434 2°51.286 14.3291 1.127489 6.569016 -1.766697
2008-03-14 05:37:34 51°15.432 2°51.262 14.3292 1.127489 6.569123 -1.766697
2008-03-14 05:37:39 51°15.431 2°51.237 14.3301 1.127489 6.569123 -1.766697
2008-03-14 05:37:44 51°15.429 2°51.213 14.3308 1.127489 6.56923 -1.766697
2008-03-14 05:37:49 51°15.428 2°51.188 14.331 1.127489 6.56923 -1.766697
2008-03-14 05:37:54 51°15.426 2°51.164 14.3317 1.127489 6.569336 -1.766697
2008-03-14 05:37:59 51°15.425 2°51.14 14.3326 1.127489 6.569336 -1.766697
2008-03-14 05:38:04 51°15.423 2°51.115 14.3331 1.127489 6.569443 -1.766697
2008-03-14 05:38:09 51°15.421 2°51.091 14.3333 1.127489 6.569443 -1.766697
2008-03-14 05:38:14 51°15.42 2°51.066 14.3342 1.127489 6.56955 -1.766697
2008-03-14 05:38:19 51°15.419 2°51.042 14.3349 1.127489 6.569657 -1.766697
2008-03-14 05:38:24 51°15.417 2°51.017 14.3356 1.127489 6.569657 -1.766697
2008-03-14 05:38:29 51°15.416 2°50.993 14.3359 1.127489 6.569657 -1.766697
2008-03-14 05:38:34 51°15.414 2°50.968 14.3367 1.127489 6.569764 -1.766697
2008-03-14 05:38:39 51°15.413 2°50.944 14.3374 1.127386 6.569009 -1.766697
2008-03-14 05:38:44 51°15.411 2°50.92 14.3378 1.127386 6.569116 -1.766697
2008-03-14 05:38:49 51°15.41 2°50.895 14.3383 1.127386 6.569223 -1.766697
2008-03-14 05:38:54 51°15.409 2°50.871 14.3389 1.127386 6.56933 -1.766697
2008-03-14 05:38:59 51°15.407 2°50.846 14.3392 1.127386 6.56933 -1.766697
2008-03-14 05:39:04 51°15.406 2°50.822 14.3405 1.127386 6.56933 -1.766697
2008-03-14 05:39:10 51°15.404 2°50.793 14.3408 1.127386 6.569544 -1.766697
2008-03-14 05:39:14 51°15.403 2°50.773 14.3416 1.127386 6.569437 -1.766697
2008-03-14 05:39:19 51°15.401 2°50.748 14.3419 1.127386 6.569651 -1.766697
2008-03-14 05:39:24 51°15.4 2°50.724 14.3424 1.127386 6.569651 -1.766697
2008-03-14 05:39:29 51°15.398 2°50.699 14.343 1.127386 6.569651 -1.766697
2008-03-14 05:39:34 51°15.396 2°50.675 14.3434 1.127386 6.569544 -1.766697
2008-03-14 05:39:39 51°15.395 2°50.65 14.3443 1.127386 6.569651 -1.766697
2008-03-14 05:39:44 51°15.394 2°50.626 14.345 1.127386 6.569651 -1.766697
2008-03-14 05:39:49 51°15.392 2°50.602 14.3454 1.127386 6.569758 -1.766697
2008-03-14 05:39:54 51°15.391 2°50.577 14.3461 1.127386 6.569758 -1.766697
2008-03-14 05:39:59 51°15.389 2°50.553 14.3468 1.127386 6.569758 -1.766697
2008-03-14 05:40:04 51°15.388 2°50.529 14.347 1.127386 6.569865 -1.766697
2008-03-14 05:40:09 51°15.387 2°50.504 14.3482 1.127386 6.569758 -1.766697
2008-03-14 05:40:14 51°15.385 2°50.48 14.3482 1.127386 6.569971 -1.766697
2008-03-14 05:40:19 51°15.384 2°50.455 14.3493 1.127386 6.569971 -1.766697
2008-03-14 05:40:24 51°15.382 2°50.431 14.3495 1.127386 6.569971 -1.766697
2008-03-14 05:40:29 51°15.381 2°50.406 14.3508 1.127386 6.569971 -1.766697
2008-03-14 05:40:34 51°15.378 2°50.382 14.3506 1.127386 6.570078 -1.731873
2008-03-14 05:40:39 51°15.376 2°50.357 14.3519 1.127386 6.569971 -1.766697
2008-03-14 05:40:44 51°15.374 2°50.332 14.3521 1.127283 6.569431 -1.766697
2008-03-14 05:40:49 51°15.372 2°50.308 14.353 1.127283 6.569324 -1.766697
2008-03-14 05:40:54 51°15.37 2°50.283 14.3536 1.127283 6.569431 -1.766697
2008-03-14 05:40:59 51°15.368 2°50.259 14.3542 1.127283 6.569431 -1.766697
2008-03-14 05:41:04 51°15.365 2°50.234 14.3548 1.127283 6.569431 -1.766697
2008-03-14 05:41:09 51°15.363 2°50.21 14.3553 1.127283 6.569431 -1.766697
2008-03-14 05:41:14 51°15.361 2°50.185 14.3567 1.127283 6.569537 -1.766697
2008-03-14 05:41:19 51°15.359 2°50.16 14.3564 1.127283 6.569537 -1.766697
2008-03-14 05:41:24 51°15.357 2°50.136 14.3572 1.127283 6.569537 -1.801521
2008-03-14 05:41:29 51°15.355 2°50.111 14.358 1.127283 6.569537 -1.801521
2008-03-14 05:41:34 51°15.353 2°50.086 14.3587 1.127283 6.569644 -1.766697
2008-03-14 05:41:39 51°15.351 2°50.061 14.3593 1.127283 6.569644 -1.766697
2008-03-14 05:41:44 51°15.35 2°50.037 14.36 1.127283 6.569644 -1.766697
2008-03-14 05:41:49 51°15.347 2°50.012 14.3602 1.127283 6.569751 -1.766697
2008-03-14 05:41:54 51°15.346 2°49.987 14.3614 1.127283 6.569751 -1.766697
2008-03-14 05:41:59 51°15.343 2°49.963 14.3616 1.127283 6.569751 -1.766697
2008-03-14 05:42:04 51°15.341 2°49.938 14.3625 1.127283 6.569751 -1.766697
2008-03-14 05:42:09 51°15.339 2°49.913 14.363 1.127283 6.569751 -1.766697
2008-03-14 05:42:14 51°15.336 2°49.889 14.3637 1.127283 6.569751 -1.766697
2008-03-14 05:42:19 51°15.335 2°49.864 14.3648 1.127283 6.569751 -1.766697
2008-03-14 05:42:24 51°15.332 2°49.84 14.3651 1.127283 6.569858 -1.766697
2008-03-14 05:42:29 51°15.33 2°49.815 14.3658 1.127283 6.569858 -1.766697
2008-03-14 05:42:34 51°15.328 2°49.79 14.3665 1.127283 6.569858 -1.766697
2008-03-14 05:42:39 51°15.326 2°49.765 14.367 1.127283 6.569965 -1.766697
2008-03-14 05:42:44 51°15.324 2°49.74 14.3679 1.127283 6.569965 -1.766697
2008-03-14 05:42:49 51°15.322 2°49.716 14.3681 1.127283 6.570072 -1.766697
2008-03-14 05:42:54 51°15.32 2°49.691 14.3693 1.127283 6.570179 -1.766697
2008-03-14 05:42:59 51°15.318 2°49.666 14.3694 1.127283 6.570179 -1.766697
2008-03-14 05:43:04 51°15.316 2°49.641 14.3705 1.127283 6.570072 -1.766697
2008-03-14 05:43:09 51°15.314 2°49.616 14.3708 1.12718 6.569531 -1.766697
2008-03-14 05:43:14 51°15.312 2°49.591 14.3716 1.12718 6.569424 -1.766697
2008-03-14 05:43:19 51°15.309 2°49.567 14.3721 1.12718 6.569638 -1.766697
2008-03-14 05:43:24 51°15.308 2°49.542 14.3731 1.12718 6.569531 -1.766697
2008-03-14 05:43:30 51°15.305 2°49.512 14.3737 1.12718 6.569531 -1.766697
2008-03-14 05:43:34 51°15.303 2°49.492 14.3745 1.12718 6.569638 -1.766697
2008-03-14 05:43:39 51°15.301 2°49.467 14.3749 1.12718 6.569638 -1.766697
2008-03-14 05:43:44 51°15.299 2°49.443 14.3755 1.12718 6.569745 -1.766697
2008-03-14 05:43:49 51°15.297 2°49.418 14.3762 1.12718 6.569745 -1.766697
2008-03-14 05:43:54 51°15.295 2°49.393 14.3766 1.12718 6.569745 -1.766697
2008-03-14 05:43:59 51°15.294 2°49.368 14.3778 1.12718 6.569745 -1.766697
2008-03-14 05:44:04 51°15.292 2°49.343 14.3786 1.12718 6.569852 -1.766697
2008-03-14 05:44:09 51°15.29 2°49.318 14.3789 1.12718 6.569959 -1.766697
2008-03-14 05:44:14 51°15.288 2°49.293 14.3796 1.12718 6.569959 -1.766697
2008-03-14 05:44:19 51°15.286 2°49.268 14.3801 1.12718 6.569959 -1.766697
2008-03-14 05:44:24 51°15.284 2°49.243 14.3809 1.12718 6.570066 -1.766697
2008-03-14 05:44:29 51°15.282 2°49.219 14.3818 1.12718 6.570066 -1.766697
2008-03-14 05:44:34 51°15.279 2°49.194 14.3824 1.12718 6.570066 -1.766697
2008-03-14 05:44:39 51°15.277 2°49.169 14.3826 1.12718 6.570066 -1.766697
2008-03-14 05:44:44 51°15.275 2°49.144 14.3834 1.12718 6.570066 -1.766697
2008-03-14 05:44:49 51°15.272 2°49.12 14.3843 1.12718 6.570066 -1.766697
2008-03-14 05:44:54 51°15.27 2°49.095 14.3848 1.12718 6.570173 -1.766697
2008-03-14 05:44:59 51°15.268 2°49.07 14.3853 1.12718 6.570173 -1.766697
2008-03-14 05:45:04 51°15.266 2°49.045 14.386 1.12718 6.570173 -1.766697
2008-03-14 05:45:09 51°15.263 2°49.021 14.3867 1.12718 6.57028 -1.766697
2008-03-14 05:45:14 51°15.261 2°48.996 14.3871 1.127077 6.569632 -1.766697
2008-03-14 05:45:19 51°15.259 2°48.972 14.3881 1.127077 6.569632 -1.766697
2008-03-14 05:45:24 51°15.256 2°48.947 14.3885 1.127077 6.569739 -1.766697
2008-03-14 05:45:29 51°15.254 2°48.922 14.3891 1.127077 6.569739 -1.766697
2008-03-14 05:45:34 51°15.252 2°48.898 14.3897 1.12718 6.570387 -1.766697
2008-03-14 05:45:39 51°15.249 2°48.873 14.3904 1.127077 6.569739 -1.766697
2008-03-14 05:45:44 51°15.247 2°48.849 14.391 1.12718 6.57028 -1.766697
2008-03-14 05:45:50 51°15.245 2°48.819 14.3915 1.127077 6.569739 -1.766697
2008-03-14 05:45:54 51°15.243 2°48.8 14.3923 1.127077 6.569632 -1.766697
2008-03-14 05:45:59 51°15.24 2°48.775 14.393 1.127077 6.569632 -1.766697
2008-03-14 05:46:04 51°15.238 2°48.75 14.3942 1.127077 6.569632 -1.766697
2008-03-14 05:46:09 51°15.236 2°48.726 14.3945 1.127077 6.569739 -1.766697
2008-03-14 05:46:14 51°15.234 2°48.702 14.3955 1.127077 6.569739 -1.766697
2008-03-14 05:46:19 51°15.231 2°48.677 14.3959 1.127077 6.569739 -1.766697
2008-03-14 05:46:24 51°15.229 2°48.652 14.3968 1.127077 6.569846 -1.766697
2008-03-14 05:46:29 51°15.227 2°48.628 14.3972 1.127077 6.569846 -1.766697
2008-03-14 05:46:34 51°15.225 2°48.603 14.3981 1.127077 6.569739 -1.766697
2008-03-14 05:46:39 51°15.222 2°48.578 14.3989 1.127077 6.569846 -1.766697
2008-03-14 05:46:44 51°15.22 2°48.554 14.3994 1.127077 6.569739 -1.766697
2008-03-14 05:46:49 51°15.218 2°48.529 14.4 1.127077 6.569846 -1.766697
2008-03-14 05:46:54 51°15.215 2°48.505 14.4009 1.127077 6.569739 -1.766697
2008-03-14 05:46:59 51°15.213 2°48.48 14.4012 1.127077 6.569739 -1.766697
2008-03-14 05:47:04 51°15.211 2°48.455 14.4023 1.127077 6.569632 -1.766697
2008-03-14 05:47:09 51°15.209 2°48.431 14.4028 1.127077 6.569846 -1.766697
2008-03-14 05:47:14 51°15.207 2°48.406 14.4036 1.127077 6.569846 -1.766697
2008-03-14 05:47:19 51°15.204 2°48.381 14.4039 1.127077 6.569846 -1.766697
2008-03-14 05:47:24 51°15.202 2°48.356 14.405 1.127077 6.569846 -1.766697
2008-03-14 05:47:29 51°15.199 2°48.332 14.4051 1.127077 6.569846 -1.766697
2008-03-14 05:47:34 51°15.198 2°48.307 14.4062 1.127077 6.569739 -1.766697
2008-03-14 05:47:39 51°15.196 2°48.282 14.407 1.127077 6.569953 -1.766697
2008-03-14 05:47:44 51°15.193 2°48.258 14.4075 1.127077 6.569953 -1.766697
2008-03-14 05:47:50 51°15.191 2°48.228 14.4084 1.127077 6.569953 -1.766697
2008-03-14 05:47:54 51°15.189 2°48.208 14.4088 1.127077 6.569846 -1.766697
2008-03-14 05:47:59 51°15.187 2°48.183 14.4097 1.127077 6.569846 -1.766697
2008-03-14 05:48:04 51°15.185 2°48.159 14.4101 1.126973 6.569305 -1.766697
2008-03-14 05:48:09 51°15.182 2°48.134 14.4113 1.126973 6.569305 -1.766697
2008-03-14 05:48:14 51°15.18 2°48.11 14.4115 1.126973 6.569412 -1.801521
2008-03-14 05:48:19 51°15.178 2°48.085 14.4122 1.126973 6.569305 -1.766697
2008-03-14 05:48:24 51°15.175 2°48.06 14.4131 1.126973 6.569305 -1.766697
2008-03-14 05:48:29 51°15.173 2°48.035 14.4138 1.126973 6.569305 -1.766697
2008-03-14 05:48:34 51°15.171 2°48.011 14.4145 1.126973 6.569412 -1.766697
2008-03-14 05:48:39 51°15.169 2°47.986 14.4155 1.126973 6.569412 -1.766697
2008-03-14 05:48:44 51°15.167 2°47.961 14.416 1.126973 6.569412 -1.766697
2008-03-14 05:48:49 51°15.164 2°47.937 14.4165 1.126973 6.569412 -1.766697
2008-03-14 05:48:54 51°15.162 2°47.912 14.4171 1.126973 6.569412 -1.766697
2008-03-14 05:48:59 51°15.16 2°47.887 14.4182 1.126973 6.569412 -1.766697
2008-03-14 05:49:04 51°15.157 2°47.862 14.4186 1.126973 6.569412 -1.766697
2008-03-14 05:49:09 51°15.155 2°47.837 14.4191 1.126973 6.569412 -1.766697
2008-03-14 05:49:14 51°15.153 2°47.813 14.4198 1.126973 6.569412 -1.766697
2008-03-14 05:49:19 51°15.151 2°47.788 14.421 1.126973 6.569518 -1.766697
2008-03-14 05:49:24 51°15.149 2°47.763 14.4216 1.126973 6.569625 -1.766697
2008-03-14 05:49:29 51°15.146 2°47.738 14.4222 1.126973 6.569625 -1.766697
2008-03-14 05:49:34 51°15.144 2°47.714 14.4228 1.126973 6.569412 -1.766697
2008-03-14 05:49:39 51°15.142 2°47.689 14.4232 1.126973 6.569412 -1.766697
2008-03-14 05:49:44 51°15.14 2°47.664 14.4242 1.126973 6.569518 -1.766697
2008-03-14 05:49:49 51°15.138 2°47.639 14.4251 1.126973 6.569625 -1.766697
2008-03-14 05:49:54 51°15.135 2°47.614 14.4253 1.126973 6.569518 -1.766697
2008-03-14 05:49:59 51°15.134 2°47.589 14.4265 1.126973 6.569518 -1.766697
2008-03-14 05:50:04 51°15.131 2°47.564 14.4271 1.126973 6.569732 -1.766697
2008-03-14 05:50:09 51°15.129 2°47.54 14.4282 1.126973 6.569625 -1.766697
2008-03-14 05:50:14 51°15.126 2°47.515 14.4283 1.126973 6.569732 -1.766697
2008-03-14 05:50:19 51°15.124 2°47.49 14.4295 1.126973 6.569625 -1.766697
2008-03-14 05:50:24 51°15.122 2°47.465 14.4299 1.126973 6.569732 -1.766697
2008-03-14 05:50:29 51°15.119 2°47.44 14.4305 1.126973 6.569732 -1.766697
2008-03-14 05:50:34 51°15.117 2°47.415 14.4318 1.126973 6.569625 -1.766697
2008-03-14 05:50:39 51°15.115 2°47.39 14.4319 1.12687 6.569191 -1.766697
2008-03-14 05:50:44 51°15.113 2°47.366 14.4328 1.126973 6.569625 -1.766697
2008-03-14 05:50:49 51°15.11 2°47.341 14.4334 1.12687 6.569084 -1.766697
2008-03-14 05:50:54 51°15.108 2°47.317 14.4348 1.126973 6.569839 -1.766697
2008-03-14 05:50:59 51°15.106 2°47.292 14.4348 1.126973 6.569839 -1.766697
2008-03-14 05:51:04 51°15.104 2°47.267 14.4357 1.12687 6.569084 -1.766697
2008-03-14 05:51:09 51°15.102 2°47.243 14.4365 1.12687 6.569191 -1.766697
2008-03-14 05:51:14 51°15.1 2°47.218 14.4373 1.12687 6.569191 -1.766697
2008-03-14 05:51:19 51°15.097 2°47.193 14.4381 1.12687 6.569191 -1.766697
2008-03-14 05:51:24 51°15.095 2°47.168 14.4388 1.12687 6.569298 -1.766697
2008-03-14 05:51:29 51°15.093 2°47.143 14.4394 1.12687 6.569298 -1.766697
2008-03-14 05:51:34 51°15.091 2°47.118 14.44 1.12687 6.569191 -1.766697
2008-03-14 05:51:39 51°15.089 2°47.092 14.4407 1.12687 6.569191 -1.766697
2008-03-14 05:51:44 51°15.086 2°47.067 14.4418 1.12687 6.569405 -1.766697
2008-03-14 05:51:49 51°15.084 2°47.042 14.4428 1.12687 6.569298 -1.766697
2008-03-14 05:51:54 51°15.081 2°47.017 14.4431 1.12687 6.569405 -1.766697
2008-03-14 05:51:59 51°15.079 2°46.992 14.4442 1.12687 6.569405 -1.766697
2008-03-14 05:52:04 51°15.077 2°46.968 14.4447 1.12687 6.569405 -1.766697
2008-03-14 05:52:09 51°15.075 2°46.943 14.4457 1.12687 6.569405 -1.766697
2008-03-14 05:52:14 51°15.073 2°46.918 14.4461 1.12687 6.569512 -1.766697
2008-03-14 05:52:19 51°15.07 2°46.893 14.4471 1.12687 6.569512 -1.766697
2008-03-14 05:52:24 51°15.068 2°46.868 14.4479 1.12687 6.569512 -1.766697
2008-03-14 05:52:29 51°15.066 2°46.844 14.4482 1.12687 6.569512 -1.766697
2008-03-14 05:52:34 51°15.064 2°46.818 14.4497 1.12687 6.569405 -1.766697
2008-03-14 05:52:39 51°15.062 2°46.793 14.4497 1.12687 6.569619 -1.766697
2008-03-14 05:52:44 51°15.06 2°46.768 14.451 1.12687 6.569512 -1.766697
2008-03-14 05:52:50 51°15.057 2°46.738 14.4518 1.12687 6.569726 -1.766697
2008-03-14 05:52:54 51°15.056 2°46.718 14.4522 1.12687 6.569619 -1.766697
2008-03-14 05:52:59 51°15.054 2°46.693 14.453 1.12687 6.569619 -1.766697
2008-03-14 05:53:04 51°15.051 2°46.668 14.4538 1.12687 6.569726 -1.766697
2008-03-14 05:53:09 51°15.049 2°46.642 14.4548 1.12687 6.569726 -1.766697
2008-03-14 05:53:14 51°15.047 2°46.617 14.4554 1.12687 6.569726 -1.766697
2008-03-14 05:53:19 51°15.045 2°46.592 14.4562 1.12687 6.569726 -1.766697
2008-03-14 05:53:24 51°15.043 2°46.566 14.457 1.126767 6.569078 -1.766697
2008-03-14 05:53:29 51°15.041 2°46.541 14.4575 1.126767 6.569078 -1.766697
2008-03-14 05:53:34 51°15.039 2°46.515 14.4584 1.12687 6.569726 -1.766697
2008-03-14 05:53:39 51°15.037 2°46.49 14.4594 1.126767 6.569185 -1.766697
2008-03-14 05:53:44 51°15.034 2°46.465 14.4597 1.126767 6.569185 -1.766697
2008-03-14 05:53:49 51°15.033 2°46.44 14.4613 1.126767 6.569292 -1.766697
2008-03-14 05:53:54 51°15.03 2°46.415 14.4613 1.126767 6.569292 -1.766697
2008-03-14 05:53:59 51°15.028 2°46.39 14.4625 1.126767 6.569292 -1.766697
2008-03-14 05:54:04 51°15.026 2°46.365 14.4628 1.126767 6.569292 -1.766697
2008-03-14 05:54:09 51°15.024 2°46.34 14.4637 1.126767 6.569292 -1.766697
2008-03-14 05:54:14 51°15.021 2°46.316 14.4644 1.126767 6.569292 -1.766697
2008-03-14 05:54:19 51°15.02 2°46.291 14.4652 1.126767 6.569292 -1.766697
2008-03-14 05:54:24 51°15.017 2°46.266 14.4661 1.126767 6.569292 -1.766697
2008-03-14 05:54:29 51°15.015 2°46.241 14.4671 1.126767 6.569292 -1.766697
2008-03-14 05:54:34 51°15.013 2°46.216 14.4673 1.126767 6.569399 -1.766697
2008-03-14 05:54:39 51°15.011 2°46.191 14.4688 1.126767 6.569399 -1.766697
2008-03-14 05:54:44 51°15.009 2°46.167 14.4694 1.126767 6.569399 -1.766697
2008-03-14 05:54:49 51°15.007 2°46.142 14.4703 1.126767 6.569506 -1.766697
2008-03-14 05:54:54 51°15.004 2°46.117 14.4711 1.126767 6.569399 -1.766697
2008-03-14 05:54:59 51°15.002 2°46.093 14.4719 1.126767 6.569399 -1.766697
2008-03-14 05:55:04 51°15 2°46.068 14.4728 1.126767 6.569506 -1.766697
2008-03-14 05:55:10 51°14.998 2°46.038 14.4733 1.126767 6.569506 -1.766697
2008-03-14 05:55:14 51°14.996 2°46.018 14.4746 1.126767 6.569506 -1.766697
2008-03-14 05:55:19 51°14.995 2°45.993 14.4753 1.126767 6.569613 -1.766697
2008-03-14 05:55:24 51°14.992 2°45.968 14.4758 1.126767 6.569613 -1.766697
2008-03-14 05:55:29 51°14.99 2°45.944 14.4768 1.126767 6.569613 -1.766697
2008-03-14 05:55:34 51°14.988 2°45.919 14.4776 1.126767 6.569613 -1.766697
2008-03-14 05:55:39 51°14.986 2°45.894 14.4783 1.126767 6.56972 -1.766697
2008-03-14 05:55:44 51°14.984 2°45.87 14.4794 1.126767 6.569613 -1.766697
2008-03-14 05:55:49 51°14.982 2°45.846 14.4802 1.126767 6.569827 -1.766697
2008-03-14 05:55:54 51°14.98 2°45.821 14.4807 1.126767 6.569613 -1.766697
2008-03-14 05:55:59 51°14.978 2°45.797 14.4816 1.126767 6.569613 -1.766697
2008-03-14 05:56:04 51°14.976 2°45.772 14.4823 1.126664 6.569179 -1.731873
2008-03-14 05:56:09 51°14.974 2°45.748 14.4832 1.126767 6.56972 -1.766697
2008-03-14 05:56:14 51°14.972 2°45.724 14.4838 1.126664 6.569179 -1.766697
2008-03-14 05:56:19 51°14.97 2°45.699 14.4849 1.126664 6.569286 -1.766697
2008-03-14 05:56:24 51°14.967 2°45.675 14.4857 1.126664 6.569179 -1.766697
2008-03-14 05:56:29 51°14.965 2°45.65 14.4866 1.126664 6.569179 -1.766697
2008-03-14 05:56:34 51°14.963 2°45.626 14.4875 1.126664 6.569179 -1.766697
2008-03-14 05:56:39 51°14.961 2°45.601 14.4888 1.126664 6.569286 -1.766697
2008-03-14 05:56:44 51°14.959 2°45.577 14.4893 1.126664 6.569286 -1.766697
2008-03-14 05:56:49 51°14.958 2°45.552 14.4902 1.126664 6.569286 -1.766697
2008-03-14 05:56:54 51°14.956 2°45.527 14.4911 1.126664 6.569286 -1.766697
2008-03-14 05:56:59 51°14.954 2°45.503 14.492 1.126664 6.569286 -1.766697
2008-03-14 05:57:04 51°14.952 2°45.478 14.4923 1.126664 6.569393 -1.766697
2008-03-14 05:57:10 51°14.95 2°45.449 14.4937 1.126664 6.569393 -1.766697
2008-03-14 05:57:14 51°14.948 2°45.429 14.4943 1.126664 6.569393 -1.766697
2008-03-14 05:57:19 51°14.947 2°45.404 14.4958 1.126664 6.5695 -1.766697
2008-03-14 05:57:24 51°14.945 2°45.38 14.4959 1.126664 6.5695 -1.766697
2008-03-14 05:57:29 51°14.943 2°45.355 14.4971 1.126664 6.5695 -1.766697
2008-03-14 05:57:34 51°14.941 2°45.331 14.4976 1.126664 6.5695 -1.766697
2008-03-14 05:57:39 51°14.939 2°45.306 14.4992 1.126664 6.5695 -1.766697
2008-03-14 05:57:44 51°14.936 2°45.282 14.4997 1.126664 6.569714 -1.731873
2008-03-14 05:57:49 51°14.934 2°45.257 14.5007 1.126664 6.5695 -1.766697
2008-03-14 05:57:54 51°14.931 2°45.233 14.5014 1.126664 6.569714 -1.731873
2008-03-14 05:57:59 51°14.928 2°45.209 14.5024 1.126664 6.569714 -1.731873
2008-03-14 05:58:04 51°14.925 2°45.185 14.5034 1.126664 6.5695 -1.766697
2008-03-14 05:58:09 51°14.922 2°45.161 14.5035 1.126664 6.569821 -1.766697
2008-03-14 05:58:14 51°14.919 2°45.137 14.5053 1.126664 6.569607 -1.766697
2008-03-14 05:58:19 51°14.916 2°45.113 14.5056 1.126664 6.569821 -1.766697
2008-03-14 05:58:24 51°14.913 2°45.089 14.5067 1.126664 6.569821 -1.766697
2008-03-14 05:58:29 51°14.911 2°45.064 14.5074 1.126664 6.569821 -1.766697
2008-03-14 05:58:34 51°14.908 2°45.04 14.5085 1.126664 6.569821 -1.766697
2008-03-14 05:58:39 51°14.905 2°45.017 14.5092 1.126664 6.569821 -1.766697
2008-03-14 05:58:44 51°14.902 2°44.992 14.5101 1.126664 6.569821 -1.766697
2008-03-14 05:58:49 51°14.899 2°44.968 14.5109 1.126561 6.569279 -1.766697
2008-03-14 05:58:54 51°14.896 2°44.944 14.5118 1.126664 6.569821 -1.766697
2008-03-14 05:58:59 51°14.894 2°44.92 14.513 1.126664 6.569821 -1.766697
2008-03-14 05:59:04 51°14.891 2°44.896 14.5135 1.126664 6.569928 -1.766697
2008-03-14 05:59:09 51°14.888 2°44.872 14.5144 1.126664 6.569821 -1.766697
2008-03-14 05:59:14 51°14.885 2°44.848 14.5153 1.126561 6.569279 -1.766697
2008-03-14 05:59:19 51°14.883 2°44.823 14.5161 1.126561 6.569279 -1.766697
2008-03-14 05:59:24 51°14.88 2°44.799 14.5169 1.126561 6.569279 -1.766697
2008-03-14 05:59:30 51°14.876 2°44.77 14.5181 1.126561 6.569279 -1.766697
2008-03-14 05:59:34 51°14.874 2°44.751 14.519 1.126561 6.569386 -1.766697
2008-03-14 05:59:39 51°14.871 2°44.726 14.5193 1.126561 6.569386 -1.766697
2008-03-14 05:59:44 51°14.869 2°44.702 14.5208 1.126561 6.569279 -1.766697
2008-03-14 05:59:49 51°14.866 2°44.678 14.5213 1.126561 6.5696 -1.766697
2008-03-14 05:59:54 51°14.863 2°44.654 14.5219 1.126561 6.569493 -1.766697
2008-03-14 05:59:59 51°14.86 2°44.63 14.5229 1.126561 6.569493 -1.766697
2008-03-14 06:00:04 51°14.857 2°44.605 14.524 1.126561 6.569493 -1.766697
2008-03-14 06:00:09 51°14.854 2°44.581 14.5246 1.126561 6.569493 -1.766697
2008-03-14 06:00:14 51°14.852 2°44.557 14.5258 1.126561 6.569493 -1.766697
2008-03-14 06:00:19 51°14.849 2°44.532 14.5266 1.126561 6.569493 -1.766697
2008-03-14 06:00:24 51°14.846 2°44.508 14.5276 1.126561 6.569493 -1.766697
2008-03-14 06:00:29 51°14.843 2°44.484 14.5282 1.126561 6.569493 -1.766697
2008-03-14 06:00:34 51°14.84 2°44.46 14.529 1.126561 6.569493 -1.731873
2008-03-14 06:00:39 51°14.837 2°44.436 14.5302 1.126561 6.569493 -1.766697
2008-03-14 06:00:44 51°14.835 2°44.412 14.5311 1.126561 6.5696 -1.766697
2008-03-14 06:00:49 51°14.832 2°44.387 14.532 1.126561 6.5696 -1.766697
2008-03-14 06:00:54 51°14.829 2°44.363 14.5326 1.126561 6.569707 -1.766697
2008-03-14 06:00:59 51°14.826 2°44.339 14.5336 1.126561 6.569707 -1.766697
2008-03-14 06:01:04 51°14.824 2°44.315 14.5342 1.126561 6.569707 -1.766697
2008-03-14 06:01:09 51°14.821 2°44.291 14.5355 1.126561 6.569707 -1.766697
2008-03-14 06:01:14 51°14.818 2°44.267 14.5359 1.126561 6.569707 -1.766697
2008-03-14 06:01:19 51°14.815 2°44.242 14.5372 1.126561 6.569707 -1.766697
2008-03-14 06:01:24 51°14.812 2°44.218 14.5373 1.126458 6.568952 -1.766697
2008-03-14 06:01:30 51°14.809 2°44.189 14.5388 1.126458 6.568952 -1.766697
2008-03-14 06:01:34 51°14.806 2°44.17 14.5392 1.126561 6.569815 -1.766697
2008-03-14 06:01:39 51°14.804 2°44.145 14.5404 1.126561 6.5696 -1.766697
2008-03-14 06:01:44 51°14.801 2°44.121 14.541 1.126561 6.569815 -1.766697
2008-03-14 06:01:50 51°14.798 2°44.092 14.5421 1.126561 6.569707 -1.766697
2008-03-14 06:01:54 51°14.795 2°44.072 14.5428 1.126458 6.569166 -1.766697
2008-03-14 06:01:59 51°14.793 2°44.048 14.5438 1.126458 6.569166 -1.766697
2008-03-14 06:02:04 51°14.79 2°44.023 14.5449 1.126458 6.569059 -1.766697
2008-03-14 06:02:09 51°14.787 2°43.999 14.5454 1.126458 6.569273 -1.766697
2008-03-14 06:02:14 51°14.784 2°43.975 14.5464 1.126458 6.569273 -1.766697
2008-03-14 06:02:19 51°14.781 2°43.95 14.5472 1.126561 6.569815 -1.766697
2008-03-14 06:02:24 51°14.778 2°43.926 14.5481 1.126458 6.569273 -1.766697
2008-03-14 06:02:29 51°14.775 2°43.902 14.5492 1.126458 6.569273 -1.766697
2008-03-14 06:02:34 51°14.772 2°43.877 14.5497 1.126458 6.569166 -1.766697
2008-03-14 06:02:39 51°14.77 2°43.853 14.551 1.126458 6.569166 -1.766697
2008-03-14 06:02:44 51°14.767 2°43.829 14.5515 1.126458 6.56938 -1.766697
2008-03-14 06:02:49 51°14.764 2°43.804 14.5527 1.126458 6.569059 -1.766697
2008-03-14 06:02:54 51°14.762 2°43.78 14.5536 1.126458 6.56938 -1.766697
2008-03-14 06:02:59 51°14.759 2°43.755 14.5544 1.126458 6.56938 -1.766697
2008-03-14 06:03:04 51°14.756 2°43.731 14.5554 1.126458 6.569273 -1.766697
2008-03-14 06:03:09 51°14.753 2°43.706 14.5562 1.126458 6.56938 -1.766697
2008-03-14 06:03:14 51°14.751 2°43.682 14.557 1.126458 6.56938 -1.766697
2008-03-14 06:03:19 51°14.748 2°43.657 14.558 1.126458 6.569273 -1.766697
2008-03-14 06:03:24 51°14.745 2°43.633 14.5588 1.126458 6.569273 -1.766697
2008-03-14 06:03:29 51°14.742 2°43.609 14.5601 1.126458 6.569273 -1.766697
2008-03-14 06:03:34 51°14.74 2°43.584 14.5611 1.126458 6.569487 -1.766697
2008-03-14 06:03:39 51°14.737 2°43.56 14.562 1.126458 6.56938 -1.766697
2008-03-14 06:03:44 51°14.734 2°43.536 14.5627 1.126458 6.569487 -1.766697
2008-03-14 06:03:50 51°14.731 2°43.506 14.5635 1.126458 6.56938 -1.766697
2008-03-14 06:03:54 51°14.729 2°43.487 14.5652 1.126458 6.569487 -1.766697
2008-03-14 06:03:59 51°14.726 2°43.462 14.5652 1.126458 6.569487 -1.766697
2008-03-14 06:04:04 51°14.723 2°43.437 14.5666 1.126458 6.56938 -1.766697
2008-03-14 06:04:09 51°14.72 2°43.413 14.5672 1.126458 6.569487 -1.766697
2008-03-14 06:04:14 51°14.718 2°43.388 14.5684 1.126458 6.569594 -1.766697
2008-03-14 06:04:19 51°14.715 2°43.364 14.5695 1.126458 6.569487 -1.766697
2008-03-14 06:04:24 51°14.712 2°43.34 14.5705 1.126458 6.569594 -1.766697
2008-03-14 06:04:29 51°14.709 2°43.315 14.5708 1.126458 6.569594 -1.766697
2008-03-14 06:04:34 51°14.707 2°43.291 14.5722 1.126355 6.568839 -1.766697
2008-03-14 06:04:39 51°14.704 2°43.267 14.5728 1.126458 6.569701 -1.766697
2008-03-14 06:04:44 51°14.701 2°43.242 14.5736 1.126458 6.569594 -1.766697
2008-03-14 06:04:49 51°14.699 2°43.218 14.5747 1.126458 6.569701 -1.766697
2008-03-14 06:04:54 51°14.696 2°43.193 14.5754 1.126355 6.568946 -1.801521
2008-03-14 06:04:59 51°14.694 2°43.169 14.5763 1.126355 6.568946 -1.801521
2008-03-14 06:05:04 51°14.692 2°43.144 14.5775 1.126458 6.569594 -1.766697
2008-03-14 06:05:09 51°14.69 2°43.12 14.5784 1.126458 6.569701 -1.766697
2008-03-14 06:05:14 51°14.688 2°43.095 14.5793 1.126355 6.569053 -1.766697
2008-03-14 06:05:19 51°14.686 2°43.07 14.5804 1.126355 6.56916 -1.766697
2008-03-14 06:05:24 51°14.685 2°43.046 14.581 1.126355 6.569053 -1.766697
2008-03-14 06:05:29 51°14.683 2°43.021 14.5822 1.126355 6.569053 -1.766697
2008-03-14 06:05:34 51°14.682 2°42.996 14.583 1.126355 6.56916 -1.766697
2008-03-14 06:05:39 51°14.681 2°42.971 14.5838 1.126355 6.56916 -1.766697
2008-03-14 06:05:44 51°14.679 2°42.947 14.5845 1.126355 6.56916 -1.766697
2008-03-14 06:05:50 51°14.677 2°42.917 14.5854 1.126355 6.569267 -1.766697
2008-03-14 06:05:54 51°14.676 2°42.897 14.5867 1.126355 6.569267 -1.766697
2008-03-14 06:05:59 51°14.674 2°42.872 14.5873 1.126355 6.569267 -1.766697
2008-03-14 06:06:04 51°14.673 2°42.847 14.5884 1.126355 6.569267 -1.766697
2008-03-14 06:06:09 51°14.671 2°42.822 14.5892 1.126355 6.569267 -1.766697
2008-03-14 06:06:14 51°14.67 2°42.797 14.5902 1.126355 6.569267 -1.766697
2008-03-14 06:06:19 51°14.668 2°42.772 14.591 1.126355 6.569374 -1.766697
2008-03-14 06:06:24 51°14.667 2°42.747 14.5918 1.126355 6.569374 -1.766697
2008-03-14 06:06:29 51°14.665 2°42.722 14.5932 1.126355 6.569374 -1.766697
2008-03-14 06:06:34 51°14.664 2°42.698 14.5935 1.126355 6.569267 -1.766697
2008-03-14 06:06:39 51°14.662 2°42.672 14.5944 1.126355 6.569374 -1.766697
2008-03-14 06:06:44 51°14.661 2°42.647 14.5961 1.126355 6.569374 -1.766697
2008-03-14 06:06:49 51°14.659 2°42.623 14.5964 1.126355 6.569374 -1.766697
2008-03-14 06:06:54 51°14.658 2°42.598 14.5977 1.126355 6.569481 -1.766697
2008-03-14 06:06:59 51°14.657 2°42.573 14.5982 1.126355 6.569481 -1.766697
2008-03-14 06:07:04 51°14.656 2°42.548 14.5988 1.126355 6.569481 -1.766697
2008-03-14 06:07:09 51°14.655 2°42.523 14.6 1.126355 6.569374 -1.766697
2008-03-14 06:07:14 51°14.654 2°42.498 14.6009 1.126355 6.569374 -1.766697
2008-03-14 06:07:19 51°14.654 2°42.473 14.6019 1.126355 6.569481 -1.766697
2008-03-14 06:07:24 51°14.653 2°42.449 14.6026 1.126355 6.569588 -1.766697
2008-03-14 06:07:29 51°14.652 2°42.424 14.6035 1.126355 6.569588 -1.766697
2008-03-14 06:07:34 51°14.651 2°42.399 14.6048 1.126355 6.569481 -1.766697
2008-03-14 06:07:39 51°14.65 2°42.374 14.605 1.126355 6.569695 -1.731873
2008-03-14 06:07:44 51°14.649 2°42.35 14.6064 1.126355 6.569481 -1.766697
2008-03-14 06:07:49 51°14.648 2°42.325 14.6069 1.126355 6.569695 -1.766697
2008-03-14 06:07:54 51°14.647 2°42.3 14.6078 1.126355 6.569695 -1.766697
2008-03-14 06:07:59 51°14.646 2°42.275 14.6084 1.126355 6.569695 -1.766697
2008-03-14 06:08:04 51°14.645 2°42.25 14.6098 1.126355 6.569695 -1.766697
2008-03-14 06:08:09 51°14.645 2°42.225 14.6107 1.126355 6.569802 -1.766697
2008-03-14 06:08:14 51°14.644 2°42.2 14.6106 1.126252 6.569047 -1.766697
2008-03-14 06:08:19 51°14.645 2°42.175 14.6125 1.126355 6.569481 -1.766697
2008-03-14 06:08:24 51°14.646 2°42.15 14.6134 1.126252 6.569047 -1.766697
2008-03-14 06:08:29 51°14.647 2°42.124 14.6142 1.126252 6.569047 -1.766697
2008-03-14 06:08:34 51°14.648 2°42.099 14.6144 1.126355 6.569802 -1.766697
2008-03-14 06:08:39 51°14.651 2°42.074 14.6159 1.126355 6.569802 -1.766697
2008-03-14 06:08:44 51°14.652 2°42.049 14.6161 1.126252 6.569261 -1.766697
2008-03-14 06:08:49 51°14.654 2°42.024 14.6172 1.126252 6.569261 -1.766697
2008-03-14 06:08:54 51°14.656 2°41.998 14.618 1.126252 6.569261 -1.766697
2008-03-14 06:08:59 51°14.659 2°41.973 14.6193 1.126252 6.569261 -1.766697
2008-03-14 06:09:04 51°14.661 2°41.948 14.62 1.126252 6.569261 -1.766697
2008-03-14 06:09:09 51°14.663 2°41.922 14.6211 1.126252 6.569261 -1.766697
2008-03-14 06:09:14 51°14.666 2°41.897 14.6219 1.126252 6.569368 -1.766697
2008-03-14 06:09:19 51°14.668 2°41.872 14.6226 1.126252 6.569261 -1.766697
2008-03-14 06:09:24 51°14.671 2°41.846 14.6237 1.126252 6.569368 -1.766697
2008-03-14 06:09:29 51°14.673 2°41.821 14.6248 1.126252 6.569368 -1.766697
2008-03-14 06:09:34 51°14.676 2°41.796 14.6253 1.126252 6.569368 -1.766697
2008-03-14 06:09:39 51°14.679 2°41.771 14.6264 1.126252 6.569475 -1.766697
2008-03-14 06:09:44 51°14.682 2°41.745 14.6276 1.126252 6.569475 -1.766697
2008-03-14 06:09:49 51°14.685 2°41.72 14.6282 1.126252 6.569582 -1.766697
2008-03-14 06:09:54 51°14.687 2°41.695 14.6292 1.126252 6.569689 -1.766697
2008-03-14 06:09:59 51°14.69 2°41.67 14.6298 1.126252 6.569689 -1.766697
2008-03-14 06:10:04 51°14.692 2°41.645 14.6308 1.126252 6.569689 -1.766697
2008-03-14 06:10:09 51°14.695 2°41.619 14.6319 1.126252 6.569582 -1.766697
2008-03-14 06:10:14 51°14.697 2°41.594 14.6326 1.126252 6.569582 -1.766697
2008-03-14 06:10:19 51°14.7 2°41.569 14.6343 1.126252 6.569475 -1.766697
2008-03-14 06:10:24 51°14.702 2°41.544 14.6346 1.126252 6.569582 -1.766697
2008-03-14 06:10:29 51°14.705 2°41.518 14.6357 1.126252 6.569582 -1.766697
2008-03-14 06:10:34 51°14.708 2°41.493 14.6361 1.126252 6.569582 -1.766697
2008-03-14 06:10:39 51°14.71 2°41.468 14.6374 1.126252 6.569582 -1.766697
2008-03-14 06:10:44 51°14.713 2°41.442 14.6382 1.126252 6.569689 -1.766697
2008-03-14 06:10:50 51°14.716 2°41.412 14.6393 1.126252 6.569689 -1.766697
2008-03-14 06:10:54 51°14.718 2°41.391 14.64 1.126252 6.569796 -1.766697
2008-03-14 06:10:59 51°14.721 2°41.366 14.641 1.126252 6.569796 -1.766697
2008-03-14 06:11:04 51°14.723 2°41.341 14.6419 1.126252 6.569903 -1.766697
2008-03-14 06:11:09 51°14.725 2°41.316 14.6429 1.126252 6.569796 -1.766697
2008-03-14 06:11:14 51°14.727 2°41.29 14.6435 1.126252 6.57001 -1.766697
2008-03-14 06:11:19 51°14.73 2°41.265 14.6447 1.126252 6.569689 -1.766697
2008-03-14 06:11:24 51°14.731 2°41.24 14.6459 1.126252 6.57001 -1.731873
2008-03-14 06:11:29 51°14.733 2°41.214 14.6467 1.126252 6.57001 -1.731873
2008-03-14 06:11:34 51°14.735 2°41.188 14.6475 1.126149 6.569148 -1.766697
2008-03-14 06:11:39 51°14.737 2°41.163 14.6482 1.126149 6.569148 -1.766697
2008-03-14 06:11:44 51°14.739 2°41.137 14.6492 1.126149 6.569148 -1.766697
2008-03-14 06:11:49 51°14.741 2°41.112 14.65 1.126149 6.569255 -1.766697
2008-03-14 06:11:54 51°14.743 2°41.086 14.6509 1.126149 6.569255 -1.766697
2008-03-14 06:11:59 51°14.745 2°41.06 14.6519 1.126149 6.569255 -1.766697
2008-03-14 06:12:04 51°14.747 2°41.035 14.653 1.126149 6.569255 -1.766697
2008-03-14 06:12:09 51°14.749 2°41.009 14.6541 1.126149 6.569255 -1.766697
2008-03-14 06:12:14 51°14.751 2°40.983 14.6544 1.126149 6.569362 -1.766697
2008-03-14 06:12:19 51°14.753 2°40.958 14.6555 1.126149 6.569362 -1.766697
2008-03-14 06:12:24 51°14.754 2°40.932 14.6559 1.126149 6.569362 -1.766697
2008-03-14 06:12:29 51°14.756 2°40.907 14.6572 1.126149 6.569362 -1.766697
2008-03-14 06:12:34 51°14.759 2°40.881 14.6581 1.126149 6.569148 -1.766697
2008-03-14 06:12:39 51°14.761 2°40.856 14.6589 1.126149 6.569255 -1.766697
2008-03-14 06:12:44 51°14.763 2°40.831 14.66 1.126149 6.569362 -1.766697
2008-03-14 06:12:49 51°14.764 2°40.806 14.6607 1.126149 6.569255 -1.766697
2008-03-14 06:12:54 51°14.767 2°40.781 14.6619 1.126149 6.569362 -1.766697
2008-03-14 06:12:59 51°14.769 2°40.755 14.6627 1.126149 6.569362 -1.766697
2008-03-14 06:13:04 51°14.77 2°40.73 14.6635 1.126149 6.569469 -1.766697
2008-03-14 06:13:10 51°14.773 2°40.7 14.6647 1.126149 6.569469 -1.766697
2008-03-14 06:13:14 51°14.774 2°40.679 14.665 1.126149 6.569362 -1.766697
2008-03-14 06:13:19 51°14.776 2°40.654 14.6664 1.126149 6.569362 -1.766697
2008-03-14 06:13:24 51°14.778 2°40.629 14.6671 1.126149 6.569469 -1.766697
2008-03-14 06:13:30 51°14.781 2°40.598 14.6682 1.126149 6.569469 -1.766697
2008-03-14 06:13:34 51°14.782 2°40.578 14.6691 1.126149 6.569362 -1.766697
2008-03-14 06:13:39 51°14.784 2°40.553 14.6697 1.126149 6.569469 -1.766697
2008-03-14 06:13:44 51°14.786 2°40.527 14.6708 1.126149 6.569362 -1.766697
2008-03-14 06:13:49 51°14.788 2°40.501 14.6714 1.126149 6.569362 -1.766697
2008-03-14 06:13:54 51°14.79 2°40.476 14.6731 1.126149 6.569576 -1.766697
2008-03-14 06:13:59 51°14.791 2°40.45 14.6736 1.126149 6.569576 -1.766697
2008-03-14 06:14:04 51°14.793 2°40.425 14.6746 1.126149 6.569469 -1.766697
2008-03-14 06:14:09 51°14.794 2°40.399 14.6754 1.126149 6.569576 -1.766697
2008-03-14 06:14:14 51°14.795 2°40.373 14.6762 1.126149 6.569576 -1.766697
2008-03-14 06:14:19 51°14.796 2°40.348 14.6772 1.126149 6.569576 -1.766697
2008-03-14 06:14:24 51°14.798 2°40.322 14.6782 1.126149 6.569576 -1.766697
2008-03-14 06:14:29 51°14.799 2°40.297 14.6791 1.126149 6.569576 -1.766697
2008-03-14 06:14:34 51°14.8 2°40.271 14.6801 1.126149 6.569576 -1.766697
2008-03-14 06:14:39 51°14.802 2°40.246 14.681 1.126046 6.56882 -1.766697
2008-03-14 06:14:44 51°14.803 2°40.22 14.6818 1.126046 6.569034 -1.766697
2008-03-14 06:14:49 51°14.805 2°40.195 14.6826 1.126149 6.569576 -1.766697
2008-03-14 06:14:54 51°14.807 2°40.169 14.6839 1.126046 6.569141 -1.731873
2008-03-14 06:14:59 51°14.808 2°40.144 14.6847 1.126046 6.569141 -1.731873
2008-03-14 06:15:04 51°14.81 2°40.118 14.6854 1.126046 6.569034 -1.766697
2008-03-14 06:15:10 51°14.812 2°40.088 14.6863 1.126046 6.569034 -1.766697
2008-03-14 06:15:14 51°14.814 2°40.067 14.6877 1.126046 6.569034 -1.766697
2008-03-14 06:15:19 51°14.815 2°40.042 14.688 1.126046 6.569034 -1.766697
2008-03-14 06:15:24 51°14.817 2°40.017 14.6895 1.126046 6.569141 -1.766697
2008-03-14 06:15:30 51°14.818 2°39.986 14.6902 1.126046 6.569141 -1.766697
2008-03-14 06:15:34 51°14.82 2°39.966 14.6912 1.126046 6.569034 -1.766697
2008-03-14 06:15:39 51°14.82 2°39.94 14.6917 1.126046 6.569141 -1.766697
2008-03-14 06:15:44 51°14.822 2°39.915 14.6929 1.126046 6.569034 -1.766697
2008-03-14 06:15:49 51°14.823 2°39.89 14.6939 1.126046 6.569141 -1.766697
2008-03-14 06:15:54 51°14.824 2°39.864 14.695 1.126046 6.569034 -1.766697
2008-03-14 06:15:59 51°14.826 2°39.839 14.696 1.126046 6.569034 -1.766697
2008-03-14 06:16:04 51°14.827 2°39.814 14.6969 1.126046 6.569249 -1.766697
2008-03-14 06:16:09 51°14.828 2°39.789 14.6978 1.126046 6.569249 -1.766697
2008-03-14 06:16:14 51°14.83 2°39.763 14.6989 1.126046 6.569249 -1.766697
2008-03-14 06:16:19 51°14.831 2°39.738 14.6997 1.126046 6.569249 -1.766697
2008-03-14 06:16:24 51°14.833 2°39.713 14.7009 1.126046 6.569356 -1.766697
2008-03-14 06:16:29 51°14.834 2°39.688 14.7018 1.126046 6.569356 -1.766697
2008-03-14 06:16:34 51°14.836 2°39.662 14.7024 1.126046 6.569356 -1.766697
2008-03-14 06:16:39 51°14.837 2°39.637 14.7037 1.126046 6.569249 -1.766697
2008-03-14 06:16:44 51°14.839 2°39.612 14.7045 1.126046 6.569356 -1.766697
2008-03-14 06:16:49 51°14.841 2°39.587 14.7055 1.126046 6.569141 -1.766697
2008-03-14 06:16:54 51°14.842 2°39.561 14.7063 1.126046 6.569249 -1.766697
2008-03-14 06:16:59 51°14.843 2°39.536 14.7073 1.126046 6.569249 -1.766697
2008-03-14 06:17:04 51°14.845 2°39.511 14.708 1.126046 6.569249 -1.766697
2008-03-14 06:17:09 51°14.846 2°39.486 14.7092 1.126046 6.569249 -1.766697
2008-03-14 06:17:14 51°14.848 2°39.461 14.7105 1.125943 6.568707 -1.766697
2008-03-14 06:17:19 51°14.849 2°39.436 14.7108 1.126046 6.569356 -1.766697
2008-03-14 06:17:24 51°14.851 2°39.41 14.712 1.126046 6.569249 -1.766697
2008-03-14 06:17:30 51°14.852 2°39.38 14.7126 1.126046 6.569249 -1.766697
2008-03-14 06:17:34 51°14.853 2°39.36 14.7136 1.126046 6.569356 -1.766697
2008-03-14 06:17:39 51°14.855 2°39.335 14.7146 1.125943 6.568707 -1.766697
2008-03-14 06:17:44 51°14.856 2°39.31 14.7161 1.125943 6.5686 -1.766697
2008-03-14 06:17:50 51°14.858 2°39.28 14.7166 1.126046 6.569463 -1.766697
2008-03-14 06:17:54 51°14.859 2°39.26 14.7176 1.126046 6.569356 -1.766697
2008-03-14 06:17:59 51°14.86 2°39.234 14.7183 1.126046 6.569356 -1.766697
2008-03-14 06:18:04 51°14.862 2°39.209 14.7193 1.125943 6.568707 -1.766697
2008-03-14 06:18:09 51°14.863 2°39.183 14.72 1.125943 6.568814 -1.766697
2008-03-14 06:18:14 51°14.865 2°39.158 14.7213 1.126046 6.569141 -1.766697
2008-03-14 06:18:19 51°14.866 2°39.132 14.7223 1.125943 6.5686 -1.766697
2008-03-14 06:18:24 51°14.868 2°39.107 14.7234 1.125943 6.568921 -1.731873
2008-03-14 06:18:29 51°14.868 2°39.082 14.7238 1.125943 6.568921 -1.731873
2008-03-14 06:18:34 51°14.869 2°39.057 14.7254 1.126046 6.569463 -1.766697
2008-03-14 06:18:39 51°14.869 2°39.032 14.7255 1.125943 6.569028 -1.731873
2008-03-14 06:18:44 51°14.87 2°39.006 14.727 1.126046 6.569356 -1.766697
2008-03-14 06:18:49 51°14.87 2°38.981 14.7281 1.125943 6.568921 -1.731873
2008-03-14 06:18:54 51°14.87 2°38.956 14.7291 1.125943 6.568814 -1.766697
2008-03-14 06:18:59 51°14.87 2°38.931 14.7299 1.125943 6.568814 -1.766697
2008-03-14 06:19:04 51°14.871 2°38.906 14.7309 1.125943 6.568814 -1.766697
2008-03-14 06:19:09 51°14.871 2°38.88 14.7318 1.125943 6.568814 -1.766697
2008-03-14 06:19:14 51°14.872 2°38.855 14.733 1.125943 6.568814 -1.766697
2008-03-14 06:19:19 51°14.873 2°38.829 14.734 1.125943 6.568921 -1.766697
2008-03-14 06:19:24 51°14.873 2°38.804 14.7351 1.125943 6.568921 -1.766697
2008-03-14 06:19:30 51°14.873 2°38.773 14.7357 1.125943 6.568921 -1.766697
2008-03-14 06:19:34 51°14.874 2°38.753 14.7374 1.125943 6.568921 -1.766697
2008-03-14 06:19:39 51°14.875 2°38.727 14.7374 1.125943 6.569028 -1.766697
2008-03-14 06:19:44 51°14.875 2°38.702 14.7383 1.125943 6.568921 -1.766697
2008-03-14 06:19:50 51°14.876 2°38.671 14.7398 1.125943 6.569028 -1.766697
2008-03-14 06:19:54 51°14.877 2°38.651 14.7403 1.125943 6.568814 -1.766697
2008-03-14 06:19:59 51°14.878 2°38.626 14.7418 1.125943 6.568814 -1.766697
2008-03-14 06:20:04 51°14.88 2°38.6 14.7427 1.125943 6.569028 -1.766697
2008-03-14 06:20:09 51°14.88 2°38.575 14.7435 1.125943 6.569028 -1.766697
2008-03-14 06:20:14 51°14.882 2°38.55 14.745 1.125943 6.569028 -1.766697
2008-03-14 06:20:19 51°14.883 2°38.525 14.7456 1.125943 6.569135 -1.766697
2008-03-14 06:20:24 51°14.884 2°38.5 14.7467 1.125943 6.569028 -1.766697
2008-03-14 06:20:29 51°14.885 2°38.475 14.7477 1.125943 6.569028 -1.766697
2008-03-14 06:20:34 51°14.886 2°38.45 14.7485 1.125943 6.569135 -1.766697
2008-03-14 06:20:39 51°14.887 2°38.424 14.7497 1.125943 6.569135 -1.766697
2008-03-14 06:20:44 51°14.888 2°38.399 14.7505 1.125943 6.569242 -1.766697
2008-03-14 06:20:49 51°14.888 2°38.374 14.7515 1.125943 6.569242 -1.766697
2008-03-14 06:20:54 51°14.889 2°38.349 14.7529 1.125943 6.56935 -1.766697
2008-03-14 06:20:59 51°14.89 2°38.323 14.7533 1.125943 6.56935 -1.766697
2008-03-14 06:21:04 51°14.892 2°38.298 14.7545 1.12584 6.568487 -1.766697
2008-03-14 06:21:09 51°14.892 2°38.273 14.7553 1.125943 6.56935 -1.766697
2008-03-14 06:21:14 51°14.893 2°38.247 14.7562 1.12584 6.568487 -1.766697
2008-03-14 06:21:19 51°14.894 2°38.222 14.7571 1.125943 6.569242 -1.766697
2008-03-14 06:21:24 51°14.895 2°38.196 14.7588 1.12584 6.568487 -1.766697
2008-03-14 06:21:29 51°14.896 2°38.17 14.7589 1.12584 6.568487 -1.766697
2008-03-14 06:21:34 51°14.898 2°38.145 14.7602 1.125943 6.569242 -1.766697
2008-03-14 06:21:39 51°14.898 2°38.119 14.7612 1.12584 6.568701 -1.766697
2008-03-14 06:21:44 51°14.899 2°38.094 14.762 1.12584 6.568701 -1.766697
2008-03-14 06:21:50 51°14.9 2°38.063 14.7634 1.12584 6.568808 -1.731873
2008-03-14 06:21:54 51°14.901 2°38.043 14.764 1.12584 6.568701 -1.766697
2008-03-14 06:21:59 51°14.902 2°38.017 14.7651 1.12584 6.568701 -1.766697
2008-03-14 06:22:04 51°14.902 2°37.992 14.7657 1.12584 6.568701 -1.766697
2008-03-14 06:22:09 51°14.904 2°37.967 14.7672 1.12584 6.568594 -1.766697
2008-03-14 06:22:14 51°14.904 2°37.941 14.7681 1.12584 6.568701 -1.766697
2008-03-14 06:22:19 51°14.905 2°37.916 14.7688 1.12584 6.568701 -1.766697
2008-03-14 06:22:24 51°14.906 2°37.89 14.7698 1.12584 6.568701 -1.766697
2008-03-14 06:22:30 51°14.907 2°37.86 14.771 1.12584 6.568701 -1.766697
2008-03-14 06:22:34 51°14.908 2°37.839 14.7716 1.12584 6.568808 -1.766697
2008-03-14 06:22:39 51°14.909 2°37.814 14.7729 1.12584 6.568701 -1.766697
2008-03-14 06:22:44 51°14.91 2°37.788 14.7745 1.12584 6.568808 -1.766697
2008-03-14 06:22:49 51°14.911 2°37.763 14.7746 1.12584 6.568808 -1.766697
2008-03-14 06:22:54 51°14.912 2°37.737 14.7762 1.12584 6.568915 -1.766697
2008-03-14 06:22:59 51°14.913 2°37.712 14.7767 1.12584 6.568915 -1.766697
2008-03-14 06:23:04 51°14.914 2°37.686 14.7779 1.12584 6.568915 -1.766697
2008-03-14 06:23:09 51°14.914 2°37.661 14.7788 1.12584 6.569022 -1.766697
2008-03-14 06:23:14 51°14.916 2°37.635 14.7801 1.12584 6.568808 -1.766697
2008-03-14 06:23:19 51°14.916 2°37.61 14.7805 1.12584 6.568808 -1.766697
2008-03-14 06:23:24 51°14.918 2°37.584 14.782 1.12584 6.569022 -1.766697
2008-03-14 06:23:29 51°14.918 2°37.559 14.7825 1.12584 6.569022 -1.766697
2008-03-14 06:23:34 51°14.919 2°37.534 14.7835 1.12584 6.568915 -1.766697
2008-03-14 06:23:39 51°14.92 2°37.509 14.7843 1.12584 6.569022 -1.766697
2008-03-14 06:23:44 51°14.921 2°37.483 14.7857 1.12584 6.569129 -1.766697
2008-03-14 06:23:50 51°14.922 2°37.453 14.7863 1.12584 6.569129 -1.731873
2008-03-14 06:23:54 51°14.923 2°37.433 14.7877 1.12584 6.569236 -1.766697
2008-03-14 06:23:59 51°14.924 2°37.407 14.7882 1.12584 6.569236 -1.766697
2008-03-14 06:24:04 51°14.925 2°37.382 14.7893 1.12584 6.569129 -1.766697
2008-03-14 06:24:09 51°14.927 2°37.356 14.7905 1.12584 6.569129 -1.766697
2008-03-14 06:24:14 51°14.927 2°37.331 14.7915 1.12584 6.569129 -1.766697
2008-03-14 06:24:19 51°14.928 2°37.305 14.7923 1.12584 6.569129 -1.766697
2008-03-14 06:24:24 51°14.93 2°37.28 14.7934 1.12584 6.569129 -1.766697
2008-03-14 06:24:30 51°14.931 2°37.249 14.7945 1.12584 6.569129 -1.766697
2008-03-14 06:24:34 51°14.932 2°37.229 14.7955 1.12584 6.569129 -1.766697
2008-03-14 06:24:39 51°14.933 2°37.203 14.7961 1.125736 6.568481 -1.766697
2008-03-14 06:24:44 51°14.934 2°37.178 14.7973 1.12584 6.569343 -1.766697
2008-03-14 06:24:49 51°14.934 2°37.152 14.7983 1.12584 6.569129 -1.766697
2008-03-14 06:24:54 51°14.935 2°37.127 14.7993 1.125736 6.568588 -1.766697
2008-03-14 06:24:59 51°14.935 2°37.101 14.8001 1.125736 6.568588 -1.766697
2008-03-14 06:25:04 51°14.936 2°37.076 14.8011 1.125736 6.568588 -1.766697
2008-03-14 06:25:09 51°14.936 2°37.05 14.8022 1.125736 6.568695 -1.766697
2008-03-14 06:25:14 51°14.937 2°37.025 14.8031 1.125736 6.568588 -1.766697
2008-03-14 06:25:19 51°14.937 2°36.999 14.804 1.125736 6.568588 -1.766697
2008-03-14 06:25:24 51°14.938 2°36.974 14.8049 1.125736 6.568695 -1.766697
2008-03-14 06:25:29 51°14.939 2°36.948 14.8058 1.125736 6.568695 -1.766697
2008-03-14 06:25:34 51°14.939 2°36.923 14.8068 1.125736 6.568695 -1.766697
2008-03-14 06:25:39 51°14.94 2°36.897 14.8079 1.125736 6.568695 -1.766697
2008-03-14 06:25:44 51°14.941 2°36.872 14.8086 1.125736 6.568695 -1.766697
2008-03-14 06:25:49 51°14.941 2°36.847 14.8099 1.125736 6.568695 -1.766697
2008-03-14 06:25:54 51°14.942 2°36.822 14.8109 1.125736 6.568695 -1.766697
2008-03-14 06:25:59 51°14.943 2°36.796 14.8118 1.125736 6.568695 -1.766697
2008-03-14 06:26:04 51°14.943 2°36.771 14.8125 1.125736 6.568909 -1.766697
2008-03-14 06:26:09 51°14.944 2°36.746 14.8141 1.125736 6.568695 -1.766697
2008-03-14 06:26:14 51°14.944 2°36.721 14.8145 1.125736 6.568909 -1.766697
2008-03-14 06:26:19 51°14.944 2°36.696 14.8156 1.125736 6.568802 -1.766697
2008-03-14 06:26:24 51°14.944 2°36.671 14.816 1.125736 6.568909 -1.766697
2008-03-14 06:26:29 51°14.945 2°36.646 14.8173 1.125736 6.568909 -1.766697
2008-03-14 06:26:34 51°14.945 2°36.621 14.8182 1.125736 6.568695 -1.766697
2008-03-14 06:26:39 51°14.946 2°36.596 14.8195 1.125736 6.568802 -1.766697
2008-03-14 06:26:44 51°14.946 2°36.571 14.8203 1.125736 6.568909 -1.766697
2008-03-14 06:26:50 51°14.947 2°36.541 14.821 1.125736 6.568909 -1.766697
2008-03-14 06:26:54 51°14.947 2°36.521 14.8224 1.125736 6.569016 -1.766697
2008-03-14 06:26:59 51°14.948 2°36.496 14.8235 1.125736 6.569016 -1.766697
2008-03-14 06:27:04 51°14.949 2°36.471 14.8244 1.125736 6.568802 -1.766697
2008-03-14 06:27:10 51°14.949 2°36.441 14.8254 1.125736 6.569016 -1.766697
2008-03-14 06:27:14 51°14.949 2°36.421 14.8267 1.125736 6.568909 -1.766697
2008-03-14 06:27:19 51°14.949 2°36.396 14.8271 1.125736 6.568909 -1.766697
2008-03-14 06:27:24 51°14.951 2°36.371 14.8284 1.125736 6.569016 -1.766697
2008-03-14 06:27:29 51°14.951 2°36.346 14.829 1.125736 6.569016 -1.766697
2008-03-14 06:27:34 51°14.951 2°36.321 14.8304 1.125633 6.568153 -1.766697
2008-03-14 06:27:39 51°14.952 2°36.297 14.8311 1.125736 6.569016 -1.766697
2008-03-14 06:27:44 51°14.953 2°36.272 14.8325 1.125736 6.569016 -1.766697
2008-03-14 06:27:49 51°14.953 2°36.247 14.8335 1.125736 6.568909 -1.766697
2008-03-14 06:27:54 51°14.954 2°36.222 14.8342 1.125633 6.568367 -1.766697
2008-03-14 06:27:59 51°14.954 2°36.197 14.8352 1.125633 6.568367 -1.766697
2008-03-14 06:28:04 51°14.955 2°36.173 14.8362 1.125736 6.569016 -1.766697
2008-03-14 06:28:09 51°14.955 2°36.148 14.8371 1.125633 6.568367 -1.766697
2008-03-14 06:28:14 51°14.956 2°36.123 14.8384 1.125633 6.568474 -1.801521
2008-03-14 06:28:19 51°14.956 2°36.098 14.8394 1.125736 6.569016 -1.766697
2008-03-14 06:28:24 51°14.957 2°36.073 14.8398 1.125633 6.568367 -1.766697
2008-03-14 06:28:29 51°14.958 2°36.047 14.8417 1.125633 6.568367 -1.766697
2008-03-14 06:28:34 51°14.958 2°36.022 14.8421 1.125633 6.568474 -1.766697
2008-03-14 06:28:39 51°14.959 2°35.997 14.8435 1.125633 6.568367 -1.766697
2008-03-14 06:28:45 51°14.96 2°35.967 14.8445 1.125633 6.568474 -1.766697
2008-03-14 06:28:50 51°14.96 2°35.942 14.8455 1.125633 6.568474 -1.766697
2008-03-14 06:28:54 51°14.961 2°35.922 14.8461 1.125633 6.568367 -1.766697
2008-03-14 06:28:59 51°14.961 2°35.897 14.8477 1.125633 6.568367 -1.766697
2008-03-14 06:29:04 51°14.962 2°35.872 14.8485 1.125633 6.568474 -1.766697
2008-03-14 06:29:10 51°14.962 2°35.842 14.8494 1.125633 6.568582 -1.731873
2008-03-14 06:29:14 51°14.963 2°35.822 14.8504 1.125633 6.568582 -1.766697
2008-03-14 06:29:19 51°14.963 2°35.796 14.8513 1.125633 6.568474 -1.766697
2008-03-14 06:29:24 51°14.964 2°35.771 14.8526 1.125633 6.568582 -1.766697
2008-03-14 06:29:29 51°14.965 2°35.746 14.853 1.125633 6.568582 -1.766697
2008-03-14 06:29:34 51°14.965 2°35.721 14.8545 1.125633 6.568582 -1.766697
2008-03-14 06:29:39 51°14.966 2°35.696 14.8551 1.125633 6.568689 -1.766697
2008-03-14 06:29:44 51°14.966 2°35.671 14.8566 1.125633 6.568582 -1.766697
2008-03-14 06:29:49 51°14.967 2°35.646 14.8576 1.125633 6.568582 -1.766697
2008-03-14 06:29:54 51°14.967 2°35.62 14.8582 1.125633 6.568582 -1.766697
2008-03-14 06:29:59 51°14.968 2°35.595 14.8594 1.125633 6.568582 -1.766697
2008-03-14 06:30:04 51°14.968 2°35.57 14.8601 1.125633 6.568582 -1.766697
2008-03-14 06:30:09 51°14.969 2°35.544 14.8617 1.125633 6.568582 -1.766697
2008-03-14 06:30:14 51°14.969 2°35.519 14.8624 1.125633 6.568689 -1.766697
2008-03-14 06:30:19 51°14.97 2°35.494 14.8636 1.125633 6.568689 -1.766697
2008-03-14 06:30:24 51°14.97 2°35.469 14.8643 1.125633 6.568689 -1.766697
2008-03-14 06:30:29 51°14.971 2°35.443 14.8654 1.125633 6.568689 -1.766697
2008-03-14 06:30:34 51°14.971 2°35.418 14.8666 1.125633 6.568689 -1.766697
2008-03-14 06:30:39 51°14.972 2°35.393 14.8678 1.125633 6.568796 -1.766697
2008-03-14 06:30:44 51°14.973 2°35.368 14.8684 1.125633 6.568689 -1.766697
2008-03-14 06:30:49 51°14.973 2°35.343 14.8693 1.125633 6.568796 -1.766697
2008-03-14 06:30:54 51°14.973 2°35.318 14.8702 1.125633 6.568796 -1.766697
2008-03-14 06:30:59 51°14.974 2°35.293 14.8713 1.125633 6.568796 -1.766697
2008-03-14 06:31:05 51°14.974 2°35.262 14.8726 1.125633 6.568689 -1.766697
2008-03-14 06:31:10 51°14.974 2°35.237 14.8733 1.125633 6.568796 -1.766697
2008-03-14 06:31:14 51°14.975 2°35.216 14.8746 1.125633 6.568796 -1.766697
2008-03-14 06:31:19 51°14.975 2°35.191 14.8752 1.125633 6.568903 -1.766697
2008-03-14 06:31:24 51°14.975 2°35.166 14.8763 1.125633 6.568689 -1.766697
2008-03-14 06:31:30 51°14.976 2°35.135 14.8774 1.125633 6.568689 -1.766697
2008-03-14 06:31:34 51°14.977 2°35.115 14.8785 1.125633 6.568903 -1.766697
2008-03-14 06:31:39 51°14.978 2°35.09 14.8797 1.12553 6.568254 -1.766697
2008-03-14 06:31:44 51°14.978 2°35.064 14.8808 1.12553 6.568147 -1.766697
2008-03-14 06:31:49 51°14.979 2°35.039 14.8817 1.125633 6.56901 -1.766697
2008-03-14 06:31:54 51°14.979 2°35.013 14.8827 1.125633 6.568903 -1.766697
2008-03-14 06:31:59 51°14.98 2°34.988 14.8835 1.125633 6.568903 -1.766697
2008-03-14 06:32:04 51°14.98 2°34.962 14.8843 1.12553 6.568361 -1.766697
2008-03-14 06:32:09 51°14.981 2°34.937 14.8859 1.125633 6.568903 -1.766697
2008-03-14 06:32:14 51°14.981 2°34.912 14.8862 1.12553 6.568468 -1.766697
2008-03-14 06:32:19 51°14.981 2°34.887 14.8879 1.12553 6.568361 -1.766697
2008-03-14 06:32:24 51°14.981 2°34.861 14.8879 1.12553 6.568361 -1.766697
2008-03-14 06:32:29 51°14.982 2°34.836 14.8896 1.12553 6.568361 -1.766697
2008-03-14 06:32:34 51°14.982 2°34.811 14.8903 1.12553 6.568361 -1.766697
2008-03-14 06:32:39 51°14.983 2°34.785 14.8915 1.12553 6.568361 -1.766697
2008-03-14 06:32:44 51°14.983 2°34.76 14.8926 1.12553 6.568575 -1.766697
2008-03-14 06:32:49 51°14.985 2°34.734 14.8939 1.12553 6.568468 -1.766697
2008-03-14 06:32:54 51°14.985 2°34.709 14.8947 1.12553 6.568468 -1.766697